OK1OBR-13 Weather Reports


Display with metric or nautical units.
time (UTC)temp
F
wind
direction
speed
MPH
gust
MPH
rain 1hr
in
rain 24hr
in
rain mn
in
humidity
%
barometer
mb
20260507174601 56 298 1.0 2.0 0.00 0.00 0.00 63 934.7
20260507174501 56 311 1.0 2.0 0.00 0.00 0.00 62 934.8
20260507174402 56 305 1.0 2.0 0.00 0.00 0.00 62 934.6
20260507174301 56 312 1.0 3.0 0.00 0.00 0.00 61 934.8
20260507174200 56 314 2.0 3.0 0.00 0.00 0.00 61 934.8
20260507174101 56 311 1.0 2.0 0.00 0.00 0.00 60 934.7
20260507174001 56 296 1.0 2.0 0.00 0.00 0.00 60 934.6
20260507173901 56 304 1.0 2.0 0.00 0.00 0.00 60 934.6
20260507173802 56 300 2.0 2.0 0.00 0.00 0.00 60 934.7
20260507173701 56 284 1.0 1.0 0.00 0.00 0.00 60 934.8
20260507173601 56 300 1.0 1.0 0.00 0.00 0.00 60 934.7
20260507173500 56 291 1.0 1.0 0.00 0.00 0.00 61 934.8
20260507173401 56 296 1.0 2.0 0.00 0.00 0.00 61 934.7
20260507173302 56 291 1.0 2.0 0.00 0.00 0.00 61 934.6
20260507173202 56 300 1.0 2.0 0.00 0.00 0.00 61 934.7
20260507173001 56 268 1.0 2.0 0.00 0.00 0.00 60 934.7
20260507172901 57 299 1.0 3.0 0.00 0.00 0.00 59 934.5
20260507172801 57 266 1.0 3.0 0.00 0.00 0.00 59 934.7
20260507172701 57 279 1.0 1.0 0.00 0.00 0.00 59 934.8
20260507172601 57 289 1.0 1.0 0.00 0.00 0.00 59 934.6
20260507172501 57 293 1.0 1.0 0.00 0.00 0.00 59 934.7
20260507172401 57 284 1.0 1.0 0.00 0.00 0.00 58 934.6
20260507172307 57 300 1.0 2.0 0.00 0.00 0.00 59 934.6
20260507172201 57 283 1.0 2.0 0.00 0.00 0.00 58 934.6
20260507172100 57 283 1.0 2.0 0.00 0.00 0.00 58 934.7
20260507172001 57 302 1.0 2.0 0.00 0.00 0.00 58 934.6
20260507171901 57 295 1.0 2.0 0.00 0.00 0.00 58 934.7
20260507171801 57 295 1.0 2.0 0.00 0.00 0.00 58 934.7
20260507171701 57 310 1.0 2.0 0.00 0.00 0.00 58 934.6
20260507171601 57 310 1.0 2.0 0.00 0.00 0.00 58 934.6
20260507171502 57 308 1.0 1.0 0.00 0.00 0.00 58 934.5
20260507171401 57 247 0.0 1.0 0.00 0.00 0.00 58 934.5
20260507171301 57 281 1.0 1.0 0.00 0.00 0.00 58 934.4
20260507171201 57 302 1.0 1.0 0.00 0.00 0.00 58 934.4
20260507171101 58 303 1.0 1.0 0.00 0.00 0.00 58 934.4
20260507170900 58 293 1.0 1.0 0.00 0.00 0.00 57 934.5
20260507170802 58 295 0.0 1.0 0.00 0.00 0.00 57 934.2
20260507170701 58 286 1.0 1.0 0.00 0.00 0.00 57 934.6
20260507170601 58 310 1.0 2.0 0.00 0.00 0.00 58 934.4
20260507170502 58 300 1.0 2.0 0.00 0.00 0.00 57 934.4
20260507170402 58 310 1.0 1.0 0.00 0.00 0.00 57 934.3
20260507170301 58 279 1.0 1.0 0.00 0.00 0.00 57 934.2
20260507170202 58 299 1.0 1.0 0.00 0.00 0.00 57 934.4
20260507170101 58 284 1.0 2.0 0.00 0.00 0.00 56 934.4
20260507170002 58 293 1.0 2.0 0.00 0.00 0.00 55 934.4
20260507165901 58 310 1.0 2.0 0.00 0.00 0.00 55 934.3
20260507165802 58 289 1.0 1.0 0.00 0.00 0.00 55 934.6
20260507165700 58 264 1.0 1.0 0.00 0.00 0.00 54 934.3
20260507165602 58 286 1.0 1.0 0.00 0.00 0.00 53 934.6
20260507165501 58 274 1.0 2.0 0.00 0.00 0.00 53 934.2
20260507165402 58 272 1.0 1.0 0.00 0.00 0.00 53 934.1
20260507165301 59 247 1.0 1.0 0.00 0.00 0.00 54 934.4
20260507165201 59 278 1.0 2.0 0.00 0.00 0.00 53 934.4
20260507165101 59 282 2.0 2.0 0.00 0.00 0.00 53 934.4
20260507164902 59 297 1.0 2.0 0.00 0.00 0.00 52 934.3
20260507164801 59 286 1.0 1.0 0.00 0.00 0.00 54 934.2
20260507164701 59 244 0.0 1.0 0.00 0.00 0.00 55 934.2
20260507164600 59 253 1.0 2.0 0.00 0.00 0.00 54 934.4
20260507164503 59 296 2.0 2.0 0.00 0.00 0.00 54 934.3
20260507164403 58 292 1.0 2.0 0.00 0.00 0.00 53 934.3
20260507164301 58 292 1.0 1.0 0.00 0.00 0.00 53 934.2
20260507164201 58 298 1.0 1.0 0.00 0.00 0.00 53 934.5
20260507164101 58 268 1.0 1.0 0.00 0.00 0.00 54 934.3
20260507164001 58 273 1.0 2.0 0.00 0.00 0.00 53 934.3
20260507163902 59 281 1.0 1.0 0.00 0.00 0.00 52 934.4
20260507163701 59 279 1.0 1.0 0.00 0.00 0.00 52 934.3
20260507163603 59 280 1.0 2.0 0.00 0.00 0.00 52 934.3
20260507163501 59 281 1.0 2.0 0.00 0.00 0.00 49 934.3
20260507163401 59 279 1.0 2.0 0.00 0.00 0.00 49 934.4
20260507163301 59 298 1.0 2.0 0.00 0.00 0.00 51 934.1
20260507163205 59 280 0.0 1.0 0.00 0.00 0.00 52 934.2
20260507163101 59 281 1.0 2.0 0.00 0.00 0.00 51 934.2
20260507163002 58 222 1.0 2.0 0.00 0.00 0.00 53 934.1
20260507162901 58 267 0.0 1.0 0.00 0.00 0.00 51 934.1
20260507162801 58 303 1.0 1.0 0.00 0.00 0.00 53 934.3
20260507162700 58 275 1.0 2.0 0.00 0.00 0.00 53 934.2
20260507162601 58 293 1.0 2.0 0.00 0.00 0.00 51 934.1
20260507162501 58 281 1.0 2.0 0.00 0.00 0.00 51 934.0
20260507162401 58 249 2.0 2.0 0.00 0.00 0.00 52 934.0
20260507162302 58 282 0.0 1.0 0.00 0.00 0.00 53 934.2
20260507162201 58 281 1.0 2.0 0.00 0.00 0.00 52 934.0
20260507162102 58 239 1.0 2.0 0.00 0.00 0.00 52 934.3
20260507162001 58 263 1.0 1.0 0.00 0.00 0.00 53 934.1
20260507161902 58 252 0.0 2.0 0.00 0.00 0.00 54 934.2
20260507161802 58 252 0.0 2.0 0.00 0.00 0.00 54 934.2
20260507161703 58 277 1.0 2.0 0.00 0.00 0.00 53 934.1
20260507161601 58 234 1.0 2.0 0.00 0.00 0.00 53 934.3
20260507161401 58 228 1.0 1.0 0.00 0.00 0.00 53 934.0
20260507161302 58 244 1.0 1.0 0.00 0.00 0.00 53 934.2
20260507161201 58 285 1.0 1.0 0.00 0.00 0.00 53 934.3
20260507161101 58 273 1.0 1.0 0.00 0.00 0.00 54 934.2
20260507161001 58 285 1.0 1.0 0.00 0.00 0.00 53 934.1
20260507160902 58 290 1.0 1.0 0.00 0.00 0.00 54 934.2
20260507160801 58 279 1.0 2.0 0.00 0.00 0.00 54 934.3
20260507160702 58 288 2.0 2.0 0.00 0.00 0.00 53 934.1
20260507160601 58 277 1.0 1.0 0.00 0.00 0.00 53 934.1
20260507160501 58 281 1.0 1.0 0.00 0.00 0.00 54 934.3
20260507160401 58 281 1.0 1.0 0.00 0.00 0.00 54 934.3
20260507160302 58 282 1.0 1.0 0.00 0.00 0.00 54 934.1
20260507160218 58 278 0.0 1.0 0.00 0.00 0.00 54 934.4
20260507160001 58 277 1.0 1.0 0.00 0.00 0.00 53 934.2
20260507155901 59 269 1.0 2.0 0.00 0.00 0.00 54 934.1
20260507155801 59 273 1.0 2.0 0.00 0.00 0.00 54 934.2
20260507155701 59 225 1.0 2.0 0.00 0.00 0.00 54 934.1
20260507155601 59 305 1.0 1.0 0.00 0.00 0.00 56 934.3
20260507155501 58 292 1.0 1.0 0.00 0.00 0.00 55 934.1
20260507155402 58 276 0.0 1.0 0.00 0.00 0.00 57 934.2
20260507155301 58 284 1.0 1.0 0.00 0.00 0.00 55 934.0
20260507155201 58 284 1.0 1.0 0.00 0.00 0.00 56 934.3
20260507155101 58 281 1.0 2.0 0.00 0.00 0.00 56 934.3
20260507155001 59 282 1.0 2.0 0.00 0.00 0.00 55 934.1
20260507154900 59 285 1.0 2.0 0.00 0.00 0.00 55 934.2
20260507154801 59 285 1.0 2.0 0.00 0.00 0.00 54 934.1
20260507154701 59 296 2.0 2.0 0.00 0.00 0.00 54 934.2
20260507154601 59 275 1.0 2.0 0.00 0.00 0.00 55 933.9
20260507154501 59 296 1.0 2.0 0.00 0.00 0.00 55 934.0
20260507154401 59 295 1.0 2.0 0.00 0.00 0.00 55 934.2
20260507154301 59 300 2.0 2.0 0.00 0.00 0.00 54 934.2
20260507154201 59 282 2.0 2.0 0.00 0.00 0.00 54 934.1
20260507154101 59 281 2.0 3.0 0.00 0.00 0.00 54 934.4
20260507154001 59 284 2.0 3.0 0.00 0.00 0.00 54 934.3
20260507153902 59 296 1.0 1.0 0.00 0.00 0.00 55 934.0
20260507153801 60 286 1.0 2.0 0.00 0.00 0.00 55 934.2
20260507153702 60 259 1.0 2.0 0.00 0.00 0.00 54 934.0
20260507153602 60 264 1.0 3.0 0.00 0.00 0.00 54 934.1
20260507153501 60 210 2.0 3.0 0.00 0.00 0.00 55 934.0
20260507153401 59 288 1.0 2.0 0.00 0.00 0.00 55 934.1
20260507153303 59 263 1.0 2.0 0.00 0.00 0.00 55 934.0
20260507153202 59 262 1.0 1.0 0.00 0.00 0.00 56 934.0
20260507153101 59 283 1.0 1.0 0.00 0.00 0.00 56 934.1
20260507153002 59 241 1.0 2.0 0.00 0.00 0.00 56 934.2
20260507152901 59 294 1.0 2.0 0.00 0.00 0.00 57 934.0
20260507152801 59 311 2.0 2.0 0.00 0.00 0.00 57 934.0
20260507152701 59 301 1.0 1.0 0.00 0.00 0.00 58 934.1
20260507152601 59 288 1.0 2.0 0.00 0.00 0.00 58 934.1
20260507152501 59 314 1.0 2.0 0.00 0.00 0.00 57 934.1
20260507152401 59 303 2.0 2.0 0.00 0.00 0.00 58 934.3
20260507152301 59 293 1.0 2.0 0.00 0.00 0.00 57 934.0
20260507152201 59 288 2.0 2.0 0.00 0.00 0.00 59 934.1
20260507152101 59 305 1.0 1.0 0.00 0.00 0.00 59 934.2
20260507152002 59 308 1.0 2.0 0.00 0.00 0.00 59 934.1
20260507151901 58 305 1.0 2.0 0.00 0.00 0.00 58 934.1
20260507151800 58 303 1.0 2.0 0.00 0.00 0.00 58 934.1
20260507151701 58 312 2.0 2.0 0.00 0.00 0.00 59 934.2
20260507151601 58 312 2.0 2.0 0.00 0.00 0.00 59 934.2
20260507151501 58 302 1.0 1.0 0.00 0.00 0.00 59 934.1
20260507151402 58 265 0.0 1.0 0.00 0.00 0.00 60 934.0
20260507151301 58 290 1.0 2.0 0.00 0.00 0.00 60 934.1
20260507151201 59 327 2.0 2.0 0.00 0.00 0.00 58 934.0
20260507151101 60 295 1.0 3.0 0.00 0.00 0.00 57 934.2
20260507151001 60 316 2.0 3.0 0.00 0.00 0.00 56 934.4
20260507150901 60 300 2.0 3.0 0.00 0.00 0.00 56 934.0
20260507150801 60 280 1.0 1.0 0.00 0.00 0.00 58 934.1
20260507150701 60 282 1.0 1.0 0.00 0.00 0.00 58 934.1
20260507150601 60 274 1.0 1.0 0.00 0.00 0.00 57 934.1
20260507150501 60 251 1.0 2.0 0.00 0.00 0.00 55 934.1
20260507150403 60 242 1.0 2.0 0.00 0.00 0.00 55 934.1
20260507150301 60 252 1.0 3.0 0.00 0.00 0.00 56 934.1
20260507150202 60 235 2.0 2.0 0.00 0.00 0.00 55 934.0
20260507150100 60 238 1.0 2.0 0.00 0.00 0.00 55 933.9
20260507150001 60 247 1.0 1.0 0.00 0.00 0.00 56 934.2
20260507145902 59 282 1.0 2.0 0.00 0.00 0.00 56 934.0
20260507145801 59 262 1.0 2.0 0.00 0.00 0.00 58 934.2
20260507145701 59 313 1.0 1.0 0.00 0.00 0.00 57 934.2
20260507145601 59 284 1.0 1.0 0.00 0.00 0.00 57 933.9
20260507145502 58 309 1.0 1.0 0.00 0.00 0.00 58 933.9
20260507145401 58 281 1.0 2.0 0.00 0.00 0.00 58 933.8
20260507145302 59 299 1.0 2.0 0.00 0.00 0.00 58 934.2
20260507145200 59 279 2.0 3.0 0.00 0.00 0.00 57 934.0
20260507145101 59 221 2.0 2.0 0.00 0.00 0.00 58 934.0
20260507145001 58 225 1.0 2.0 0.00 0.00 0.00 58 934.2
20260507144901 58 226 1.0 2.0 0.00 0.00 0.00 59 934.2
20260507144801 58 274 1.0 2.0 0.00 0.00 0.00 60 934.1
20260507144701 58 272 1.0 2.0 0.00 0.00 0.00 60 934.0
20260507144601 58 277 1.0 2.0 0.00 0.00 0.00 60 934.1
20260507144501 59 304 1.0 2.0 0.00 0.00 0.00 59 934.0
20260507144401 59 277 1.0 2.0 0.00 0.00 0.00 58 934.2
20260507144303 59 248 1.0 1.0 0.00 0.00 0.00 61 934.0
20260507144202 59 288 1.0 1.0 0.00 0.00 0.00 59 934.0
20260507144101 60 302 1.0 1.0 0.00 0.00 0.00 58 934.1
20260507144000 60 234 0.0 2.0 0.00 0.00 0.00 57 934.0
20260507143901 60 295 1.0 1.0 0.00 0.00 0.00 57 933.9
20260507143801 60 281 1.0 1.0 0.00 0.00 0.00 58 934.0
20260507143702 60 277 1.0 1.0 0.00 0.00 0.00 59 934.1
20260507143601 59 288 1.0 1.0 0.00 0.00 0.00 58 934.0
20260507143502 59 283 1.0 1.0 0.00 0.00 0.00 61 934.3
20260507143401 59 223 1.0 2.0 0.00 0.00 0.00 59 934.0
20260507143301 59 301 1.0 2.0 0.00 0.00 0.00 58 934.1
20260507143201 59 289 1.0 3.0 0.00 0.00 0.00 58 934.1
20260507143101 59 277 2.0 3.0 0.00 0.00 0.00 58 934.0
20260507143001 59 296 2.0 3.0 0.00 0.00 0.00 59 934.1
20260507142901 59 285 1.0 2.0 0.00 0.00 0.00 59 934.1
20260507142806 59 253 1.0 2.0 0.00 0.00 0.00 58 934.0
20260507142701 60 259 1.0 2.0 0.00 0.00 0.00 58 934.2
20260507142601 60 253 1.0 2.0 0.00 0.00 0.00 59 934.1
20260507142501 60 243 2.0 3.0 0.00 0.00 0.00 56 934.2
20260507142401 60 292 1.0 3.0 0.00 0.00 0.00 58 934.1
20260507142300 61 247 1.0 2.0 0.00 0.00 0.00 56 934.1
20260507142201 61 254 1.0 3.0 0.00 0.00 0.00 55 934.0
20260507142102 61 249 2.0 3.0 0.00 0.00 0.00 57 934.0
20260507142000 61 233 2.0 3.0 0.00 0.00 0.00 56 934.1
20260507141901 61 243 1.0 1.0 0.00 0.00 0.00 58 934.1
20260507141802 61 222 0.0 3.0 0.00 0.00 0.00 56 934.1
20260507141701 61 282 1.0 3.0 0.00 0.00 0.00 56 934.0
20260507141601 61 282 1.0 3.0 0.00 0.00 0.00 56 934.0
20260507141501 61 228 1.0 2.0 0.00 0.00 0.00 58 934.3
20260507141402 61 287 1.0 2.0 0.00 0.00 0.00 57 934.1
20260507141304 61 236 1.0 3.0 0.00 0.00 0.00 56 934.2
20260507141201 61 235 1.0 2.0 0.00 0.00 0.00 55 934.3
20260507141105 61 267 1.0 2.0 0.00 0.00 0.00 56 934.2
20260507141002 61 228 1.0 2.0 0.00 0.00 0.00 55 934.3
20260507140901 61 258 1.0 2.0 0.00 0.00 0.00 57 934.2
20260507140801 61 256 1.0 3.0 0.00 0.00 0.00 55 934.2
20260507140701 61 232 2.0 3.0 0.00 0.00 0.00 55 934.1
20260507140601 60 218 1.0 2.0 0.00 0.00 0.00 60 934.1
20260507140502 60 293 1.0 2.0 0.00 0.00 0.00 59 934.1
20260507140401 61 308 1.0 4.0 0.00 0.00 0.00 57 934.1
20260507140301 61 304 3.0 4.0 0.00 0.00 0.00 57 934.1
20260507140201 61 299 2.0 2.0 0.00 0.00 0.00 57 933.9
20260507140101 61 279 1.0 3.0 0.00 0.00 0.00 56 934.0
20260507140002 61 283 2.0 2.0 0.00 0.00 0.00 56 933.9
20260507135902 61 291 1.0 3.0 0.00 0.00 0.00 54 933.9
20260507135800 62 282 1.0 3.0 0.00 0.00 0.00 54 934.3
20260507135700 62 311 1.0 2.0 0.00 0.00 0.00 55 934.1
20260507135603 62 242 1.0 2.0 0.00 0.00 0.00 55 934.1
20260507135501 61 285 2.0 2.0 0.00 0.00 0.00 56 934.0
20260507135401 61 289 1.0 2.0 0.00 0.00 0.00 58 933.9
20260507135301 61 282 1.0 2.0 0.00 0.00 0.00 56 934.0
20260507135200 61 274 1.0 2.0 0.00 0.00 0.00 56 934.1
20260507135102 61 229 1.0 2.0 0.00 0.00 0.00 55 934.1
20260507135001 61 242 1.0 2.0 0.00 0.00 0.00 55 934.0
20260507134902 61 275 1.0 2.0 0.00 0.00 0.00 55 934.1
20260507134805 61 280 1.0 2.0 0.00 0.00 0.00 56 934.2
20260507134701 60 281 1.0 1.0 0.00 0.00 0.00 58 934.0
20260507134600 60 284 1.0 1.0 0.00 0.00 0.00 57 934.0
20260507134501 60 287 1.0 1.0 0.00 0.00 0.00 58 934.2
20260507134401 60 278 1.0 1.0 0.00 0.00 0.00 57 934.0
20260507134301 60 245 1.0 2.0 0.00 0.00 0.00 56 934.0
20260507134202 60 229 2.0 2.0 0.00 0.00 0.00 56 933.9
20260507134101 61 239 1.0 3.0 0.00 0.00 0.00 55 933.9
20260507134000 61 255 1.0 3.0 0.00 0.00 0.00 54 933.9
20260507133901 61 240 1.0 2.0 0.00 0.00 0.00 53 934.0
20260507133802 61 234 1.0 2.0 0.00 0.00 0.00 54 934.2
20260507133702 61 259 1.0 2.0 0.00 0.00 0.00 54 934.0
20260507133603 61 231 1.0 3.0 0.00 0.00 0.00 58 934.0
20260507133500 61 224 2.0 3.0 0.00 0.00 0.00 55 934.2
20260507133401 61 281 1.0 2.0 0.00 0.00 0.00 54 934.0
20260507133302 61 239 1.0 2.0 0.00 0.00 0.00 53 934.1
20260507133201 61 264 1.0 2.0 0.00 0.00 0.00 54 934.1
20260507133101 61 243 1.0 3.0 0.00 0.00 0.00 55 934.0
20260507133002 61 273 2.0 2.0 0.00 0.00 0.00 53 934.0
20260507132902 61 250 1.0 3.0 0.00 0.00 0.00 55 934.0
20260507132801 61 231 1.0 3.0 0.00 0.00 0.00 56 934.1
20260507132701 61 220 2.0 4.0 0.00 0.00 0.00 55 934.0
20260507132601 61 222 1.0 4.0 0.00 0.00 0.00 58 934.2
20260507132501 61 250 1.0 3.0 0.00 0.00 0.00 57 934.1
20260507132401 61 223 1.0 3.0 0.00 0.00 0.00 56 934.1
20260507132300 60 223 2.0 3.0 0.00 0.00 0.00 57 934.0
20260507132200 60 228 1.0 3.0 0.00 0.00 0.00 58 934.3
20260507132102 60 223 2.0 3.0 0.00 0.00 0.00 55 934.1
20260507132001 60 225 1.0 3.0 0.00 0.00 0.00 56 934.3
20260507131901 60 226 2.0 3.0 0.00 0.00 0.00 59 934.2
20260507131800 59 223 2.0 4.0 0.00 0.00 0.00 58 934.1
20260507131701 59 213 4.0 4.0 0.00 0.00 0.00 58 933.9
20260507131602 59 213 4.0 4.0 0.00 0.00 0.00 58 933.9
20260507131500 59 211 1.0 2.0 0.00 0.00 0.00 59 934.1
20260507131401 60 276 1.0 2.0 0.00 0.00 0.00 56 934.1
20260507131302 60 230 1.0 2.0 0.00 0.00 0.00 56 934.0
20260507131201 60 228 1.0 1.0 0.00 0.00 0.00 58 934.2
20260507131101 60 281 1.0 1.0 0.00 0.00 0.00 56 934.3
20260507131001 61 300 1.0 2.0 0.00 0.00 0.00 57 934.1
20260507130900 62 280 1.0 2.0 0.00 0.00 0.00 55 934.3
20260507130801 62 281 2.0 2.0 0.00 0.00 0.00 54 934.3
20260507130701 61 284 1.0 2.0 0.00 0.00 0.00 57 934.3
20260507130601 61 255 1.0 1.0 0.00 0.00 0.00 61 934.1
20260507130502 61 276 1.0 2.0 0.00 0.00 0.00 57 934.0
20260507130401 61 276 2.0 2.0 0.00 0.00 0.00 56 934.3
20260507130301 61 285 2.0 3.0 0.00 0.00 0.00 55 934.3
20260507130202 61 303 2.0 2.0 0.00 0.00 0.00 57 934.0
20260507130101 60 283 1.0 2.0 0.00 0.00 0.00 56 934.1
20260507130003 60 230 1.0 2.0 0.00 0.00 0.00 60 934.2
20260507125900 60 222 1.0 3.0 0.00 0.00 0.00 58 934.0
20260507125800 60 222 1.0 1.0 0.00 0.00 0.00 56 934.0
20260507125701 60 273 1.0 3.0 0.00 0.00 0.00 57 934.1
20260507125601 60 219 1.0 3.0 0.00 0.00 0.00 58 934.4
20260507125502 60 233 1.0 4.0 0.00 0.00 0.00 58 934.2
20260507125402 60 217 3.0 4.0 0.00 0.00 0.00 58 934.1
20260507125301 60 205 1.0 2.0 0.00 0.00 0.00 57 934.1
20260507125201 60 248 0.0 2.0 0.00 0.00 0.00 56 933.8
20260507125101 60 221 1.0 3.0 0.00 0.00 0.00 56 934.0
20260507125001 60 226 1.0 3.0 0.00 0.00 0.00 57 934.1
20260507124901 60 223 1.0 2.0 0.00 0.00 0.00 57 934.0
20260507124801 60 245 0.0 1.0 0.00 0.00 0.00 59 934.2
20260507124703 59 301 1.0 2.0 0.00 0.00 0.00 58 934.2
20260507124601 59 274 1.0 2.0 0.00 0.00 0.00 59 934.2
20260507124501 59 230 1.0 2.0 0.00 0.00 0.00 59 934.1
20260507124401 59 237 2.0 2.0 0.00 0.00 0.00 60 934.3
20260507124301 59 225 2.0 2.0 0.00 0.00 0.00 59 934.3
20260507124201 59 244 1.0 2.0 0.00 0.00 0.00 58 934.2
20260507124101 59 238 1.0 1.0 0.00 0.00 0.00 58 934.2
20260507124001 59 251 1.0 2.0 0.00 0.00 0.00 58 934.1
20260507123901 59 280 1.0 2.0 0.00 0.00 0.00 58 933.9
20260507123801 59 231 1.0 1.0 0.00 0.00 0.00 59 933.9
20260507123701 59 277 0.0 1.0 0.00 0.00 0.00 58 934.2
20260507123601 59 276 0.0 1.0 0.00 0.00 0.00 58 934.1
20260507123501 59 280 0.0 1.0 0.00 0.00 0.00 56 934.0
20260507123401 59 270 1.0 2.0 0.00 0.00 0.00 57 934.0
20260507123301 60 285 1.0 1.0 0.00 0.00 0.00 57 933.8
20260507123201 60 214 1.0 1.0 0.00 0.00 0.00 56 934.0
20260507123102 60 279 1.0 2.0 0.00 0.00 0.00 56 934.0
20260507123000 60 242 1.0 3.0 0.00 0.00 0.00 57 933.9
20260507122900 60 222 2.0 3.0 0.00 0.00 0.00 58 933.9
20260507122801 61 203 3.0 5.0 0.00 0.00 0.00 57 933.8
20260507122700 61 206 3.0 4.0 0.00 0.00 0.00 56 933.9
20260507122602 61 225 2.0 3.0 0.00 0.00 0.00 55 933.9
20260507122502 61 227 1.0 2.0 0.00 0.00 0.00 54 934.0
20260507122401 61 247 1.0 3.0 0.00 0.00 0.00 54 934.1
20260507122301 61 209 2.0 4.0 0.00 0.00 0.00 55 934.0
20260507122200 61 211 3.0 4.0 0.00 0.00 0.00 56 934.1
20260507122101 61 199 2.0 4.0 0.00 0.00 0.00 54 934.1
20260507122001 61 226 2.0 4.0 0.00 0.00 0.00 53 933.8
20260507121901 61 222 1.0 4.0 0.00 0.00 0.00 56 934.0
20260507121801 61 221 2.0 3.0 0.00 0.00 0.00 56 933.9
20260507121701 61 286 2.0 3.0 0.00 0.00 0.00 56 934.0
20260507121601 61 210 2.0 3.0 0.00 0.00 0.00 57 933.9
20260507121501 60 221 2.0 4.0 0.00 0.00 0.00 56 933.9
20260507121401 60 221 2.0 4.0 0.00 0.00 0.00 56 933.9
20260507121301 60 209 2.0 4.0 0.00 0.00 0.00 57 933.9
20260507121202 60 204 3.0 4.0 0.00 0.00 0.00 59 934.0
20260507121101 60 197 3.0 4.0 0.00 0.00 0.00 56 933.9
20260507121001 60 225 2.0 4.0 0.00 0.00 0.00 56 933.9
20260507120901 60 217 1.0 4.0 0.00 0.00 0.00 57 934.0
20260507120811 60 200 2.0 3.0 0.00 0.00 0.00 57 934.1
20260507120701 60 200 2.0 3.0 0.00 0.00 0.00 56 934.0
20260507120601 60 209 3.0 4.0 0.00 0.00 0.00 58 934.1
20260507120501 60 218 1.0 2.0 0.00 0.00 0.00 61 934.0
20260507120401 60 233 2.0 3.0 0.00 0.00 0.00 58 933.9
20260507120301 60 212 3.0 4.0 0.00 0.00 0.00 56 933.9
20260507120201 60 190 4.0 4.0 0.00 0.00 0.00 55 933.9
20260507120001 60 222 2.0 3.0 0.00 0.00 0.00 55 934.0
20260507115901 59 229 2.0 3.0 0.00 0.00 0.00 58 934.0
20260507115800 59 234 2.0 3.0 0.00 0.00 0.00 63 934.0
20260507115701 59 265 1.0 1.0 0.00 0.00 0.00 60 933.9
20260507115601 59 282 1.0 1.0 0.00 0.00 0.00 61 934.1
20260507115501 59 248 1.0 2.0 0.00 0.00 0.00 59 933.9
20260507115401 59 269 1.0 2.0 0.00 0.00 0.00 59 933.9
20260507115302 59 278 1.0 2.0 0.00 0.00 0.00 59 934.1
20260507115201 58 274 1.0 2.0 0.00 0.00 0.00 59 933.8
20260507115101 58 275 1.0 1.0 0.00 0.00 0.00 60 934.0
20260507115001 58 276 1.0 2.0 0.00 0.00 0.00 60 933.9
20260507114901 58 228 1.0 3.0 0.00 0.00 0.00 60 934.0
20260507114801 58 237 1.0 3.0 0.00 0.00 0.00 61 933.9
20260507114701 58 242 1.0 3.0 0.00 0.00 0.00 61 934.1
20260507114601 58 241 1.0 2.0 0.00 0.00 0.00 60 934.1
20260507114500 58 226 1.0 2.0 0.00 0.00 0.00 60 934.0
20260507114401 59 232 1.0 2.0 0.00 0.00 0.00 60 933.9
20260507114301 59 268 1.0 3.0 0.00 0.00 0.00 60 934.0
20260507114201 59 230 2.0 2.0 0.00 0.00 0.00 59 934.0
20260507114101 59 224 1.0 3.0 0.00 0.00 0.00 59 934.1
20260507114000 59 215 2.0 3.0 0.00 0.00 0.00 59 934.1
20260507113901 59 220 2.0 3.0 0.00 0.00 0.00 60 934.1
20260507113801 60 214 1.0 2.0 0.00 0.00 0.00 61 934.1
20260507113701 60 227 1.0 2.0 0.00 0.00 0.00 59 934.0
20260507113601 60 221 1.0 2.0 0.00 0.00 0.00 60 934.1
20260507113501 59 262 0.0 1.0 0.00 0.00 0.00 61 933.9
20260507113401 59 266 0.0 2.0 0.00 0.00 0.00 60 934.1
20260507113301 59 223 1.0 2.0 0.00 0.00 0.00 62 933.9
20260507113201 59 277 1.0 1.0 0.00 0.00 0.00 62 934.0
20260507113102 59 279 1.0 1.0 0.00 0.00 0.00 61 934.0
20260507113001 59 260 0.0 2.0 0.00 0.00 0.00 61 934.0
20260507112902 59 236 1.0 3.0 0.00 0.00 0.00 60 933.8
20260507112801 59 264 1.0 1.0 0.00 0.00 0.00 59 933.9
20260507112701 60 222 1.0 3.0 0.00 0.00 0.00 59 934.0
20260507112601 60 224 2.0 3.0 0.00 0.00 0.00 59 933.9
20260507112502 60 223 2.0 4.0 0.00 0.00 0.00 60 934.0
20260507112401 60 232 1.0 4.0 0.00 0.00 0.00 59 934.0
20260507112301 60 247 1.0 4.0 0.00 0.00 0.00 58 934.0
20260507112201 60 225 3.0 4.0 0.00 0.00 0.00 59 934.0
20260507112101 60 231 2.0 2.0 0.00 0.00 0.00 59 933.9
20260507112000 60 276 1.0 2.0 0.00 0.00 0.00 58 933.8
20260507111901 60 291 1.0 3.0 0.00 0.00 0.00 58 933.9
20260507111805 60 230 1.0 3.0 0.00 0.00 0.00 58 933.9
20260507111701 60 208 2.0 2.0 0.00 0.00 0.00 59 934.0
20260507111601 60 202 1.0 3.0 0.00 0.00 0.00 58 933.9
20260507111500 59 238 2.0 3.0 0.00 0.00 0.00 62 933.8
20260507111401 59 238 1.0 2.0 0.00 0.00 0.00 59 933.9
20260507111301 59 238 1.0 2.0 0.00 0.00 0.00 59 933.9
20260507111200 60 210 1.0 3.0 0.00 0.00 0.00 59 933.8
20260507111101 60 284 2.0 3.0 0.00 0.00 0.00 58 933.9
20260507111002 60 288 1.0 2.0 0.00 0.00 0.00 57 934.0
20260507110900 60 222 1.0 1.0 0.00 0.00 0.00 60 933.9
20260507110802 59 270 1.0 2.0 0.00 0.00 0.00 60 933.7
20260507110701 59 222 1.0 2.0 0.00 0.00 0.00 60 933.9
20260507110600 59 236 1.0 3.0 0.00 0.00 0.00 63 934.0
20260507110501 59 212 2.0 4.0 0.00 0.00 0.00 63 933.8
20260507110401 59 211 3.0 4.0 0.00 0.00 0.00 61 934.0
20260507110302 59 243 1.0 2.0 0.00 0.00 0.00 61 933.7
20260507110201 58 235 1.0 2.0 0.00 0.00 0.00 62 933.9
20260507110001 59 226 1.0 3.0 0.00 0.00 0.00 62 933.8
20260507105901 59 221 2.0 3.0 0.00 0.00 0.00 62 933.8
20260507105802 59 216 2.0 3.0 0.00 0.00 0.00 61 933.7
20260507105701 59 225 1.0 2.0 0.00 0.00 0.00 62 933.8
20260507105601 59 221 2.0 3.0 0.00 0.00 0.00 61 933.8
20260507105501 59 209 1.0 3.0 0.00 0.00 0.00 63 933.7
20260507105401 59 268 1.0 3.0 0.00 0.00 0.00 63 933.9
20260507105302 59 214 3.0 3.0 0.00 0.00 0.00 63 933.8
20260507105201 59 226 2.0 3.0 0.00 0.00 0.00 63 933.7
20260507105100 58 262 1.0 4.0 0.00 0.00 0.00 61 933.8
20260507105001 58 272 2.0 4.0 0.00 0.00 0.00 62 933.8
20260507104901 58 266 1.0 2.0 0.00 0.00 0.00 62 933.6
20260507104801 58 244 1.0 4.0 0.00 0.00 0.00 61 933.7
20260507104700 59 226 2.0 4.0 0.00 0.00 0.00 61 933.7
20260507104601 59 238 1.0 3.0 0.00 0.00 0.00 61 933.9
20260507104501 59 199 2.0 3.0 0.00 0.00 0.00 59 933.6
20260507104401 59 215 2.0 3.0 0.00 0.00 0.00 61 933.8
20260507104301 59 235 2.0 3.0 0.00 0.00 0.00 61 933.8
20260507104201 59 230 2.0 3.0 0.00 0.00 0.00 61 933.8
20260507104101 59 223 1.0 3.0 0.00 0.00 0.00 61 933.8
20260507104001 59 228 1.0 3.0 0.00 0.00 0.00 64 933.9
20260507103901 58 214 2.0 3.0 0.00 0.00 0.00 62 933.7
20260507103802 58 215 2.0 3.0 0.00 0.00 0.00 66 934.0
20260507103701 58 281 1.0 3.0 0.00 0.00 0.00 63 933.6
20260507103601 59 283 2.0 2.0 0.00 0.00 0.00 63 933.7
20260507103501 59 242 1.0 3.0 0.00 0.00 0.00 63 933.7
20260507103401 58 213 3.0 3.0 0.00 0.00 0.00 64 933.6
20260507103301 58 225 1.0 3.0 0.00 0.00 0.00 66 933.8
20260507103201 58 256 1.0 2.0 0.00 0.00 0.00 64 933.7
20260507103102 58 235 2.0 2.0 0.00 0.00 0.00 64 933.8
20260507102901 59 223 1.0 2.0 0.00 0.00 0.00 62 933.8
20260507102802 59 251 1.0 2.0 0.00 0.00 0.00 63 933.7
20260507102701 59 288 2.0 2.0 0.00 0.00 0.00 62 933.8
20260507102601 59 278 2.0 2.0 0.00 0.00 0.00 62 933.7
20260507102502 59 297 1.0 2.0 0.00 0.00 0.00 66 933.7
20260507102402 59 224 1.0 3.0 0.00 0.00 0.00 63 933.7
20260507102301 59 230 2.0 3.0 0.00 0.00 0.00 63 933.6
20260507102201 59 242 2.0 3.0 0.00 0.00 0.00 63 933.7
20260507102100 59 239 2.0 3.0 0.00 0.00 0.00 63 933.7
20260507102000 59 227 1.0 2.0 0.00 0.00 0.00 64 933.8
20260507101901 59 226 1.0 3.0 0.00 0.00 0.00 64 933.6
20260507101800 59 233 1.0 4.0 0.00 0.00 0.00 64 933.7
20260507101701 59 191 2.0 4.0 0.00 0.00 0.00 65 933.7
20260507101601 59 229 1.0 3.0 0.00 0.00 0.00 65 933.6
20260507101501 59 225 1.0 4.0 0.00 0.00 0.00 63 933.7
20260507101401 59 212 3.0 4.0 0.00 0.00 0.00 65 933.6
20260507101301 59 212 3.0 4.0 0.00 0.00 0.00 65 933.6
20260507101201 59 219 3.0 4.0 0.00 0.00 0.00 63 933.8
20260507101101 59 212 2.0 4.0 0.00 0.00 0.00 65 933.7
20260507101001 59 223 2.0 3.0 0.00 0.00 0.00 63 933.7
20260507100901 59 223 1.0 3.0 0.00 0.00 0.00 63 933.6
20260507100801 59 213 1.0 3.0 0.00 0.00 0.00 65 933.7
20260507100700 59 180 1.0 3.0 0.00 0.00 0.00 64 933.6
20260507100601 58 230 2.0 3.0 0.00 0.00 0.00 67 933.4
20260507100500 58 234 1.0 3.0 0.00 0.00 0.00 63 933.5
20260507100400 58 235 1.0 3.0 0.00 0.00 0.00 64 933.7
20260507100301 58 219 1.0 3.0 0.00 0.00 0.00 66 933.6
20260507100201 58 200 3.0 4.0 0.00 0.00 0.00 66 933.6
20260507100106 57 215 3.0 4.0 0.00 0.00 0.00 66 933.6
20260507100001 57 218 3.0 4.0 0.00 0.00 0.00 67 933.8
20260507095901 57 234 1.0 4.0 0.00 0.00 0.00 66 933.8
20260507095802 57 232 2.0 4.0 0.00 0.00 0.00 64 933.8
20260507095701 57 229 1.0 3.0 0.00 0.00 0.00 65 933.7
20260507095601 57 215 3.0 3.0 0.00 0.00 0.00 64 933.5
20260507095501 57 246 2.0 2.0 0.00 0.00 0.00 65 933.7
20260507095401 57 237 1.0 2.0 0.00 0.00 0.00 67 933.7
20260507095301 57 281 1.0 1.0 0.00 0.00 0.00 68 933.7
20260507095201 57 279 1.0 3.0 0.00 0.00 0.00 67 933.6
20260507095101 58 236 2.0 3.0 0.00 0.00 0.00 66 933.7
20260507095006 58 281 2.0 3.0 0.00 0.00 0.00 66 933.4
20260507094901 59 226 2.0 2.0 0.00 0.00 0.00 65 933.8
20260507094801 59 244 1.0 2.0 0.00 0.00 0.00 64 933.6
20260507094701 59 235 1.0 3.0 0.00 0.00 0.00 63 933.5
20260507094601 59 218 3.0 3.0 0.00 0.00 0.00 67 933.6
20260507094501 58 214 3.0 3.0 0.00 0.00 0.00 66 933.6
20260507094405 58 217 1.0 3.0 0.00 0.00 0.00 67 933.5
20260507094301 58 222 1.0 3.0 0.00 0.00 0.00 69 933.7
20260507094201 57 280 1.0 1.0 0.00 0.00 0.00 67 933.5
20260507094101 57 237 1.0 2.0 0.00 0.00 0.00 67 933.7
20260507094001 57 278 1.0 2.0 0.00 0.00 0.00 67 933.4
20260507093901 58 278 1.0 2.0 0.00 0.00 0.00 67 933.5
20260507093802 58 256 1.0 3.0 0.00 0.00 0.00 66 933.5
20260507093701 58 228 1.0 4.0 0.00 0.00 0.00 68 933.5
20260507093601 58 207 2.0 4.0 0.00 0.00 0.00 65 933.7
20260507093501 57 236 1.0 3.0 0.00 0.00 0.00 71 933.4
20260507093401 57 259 1.0 3.0 0.00 0.00 0.00 67 933.5
20260507093300 57 231 1.0 3.0 0.00 0.00 0.00 67 933.6
20260507093200 57 209 2.0 3.0 0.00 0.00 0.00 68 933.5
20260507093100 57 221 2.0 3.0 0.00 0.00 0.00 69 933.4
20260507093000 58 223 1.0 3.0 0.00 0.00 0.00 68 933.4
20260507092900 58 232 2.0 3.0 0.00 0.00 0.00 66 933.7
20260507092801 58 206 3.0 3.0 0.00 0.00 0.00 65 933.5
20260507092700 58 221 2.0 4.0 0.00 0.00 0.00 66 933.5
20260507092601 58 222 2.0 4.0 0.00 0.00 0.00 69 933.4
20260507092500 58 213 1.0 3.0 0.00 0.00 0.00 73 933.5
20260507092401 57 220 2.0 4.0 0.00 0.00 0.00 70 933.4
20260507092301 57 213 3.0 4.0 0.00 0.00 0.00 70 933.2
20260507092202 57 227 2.0 3.0 0.00 0.00 0.00 69 933.5
20260507092101 57 217 2.0 3.0 0.00 0.00 0.00 69 933.5
20260507092001 57 283 1.0 3.0 0.00 0.00 0.00 69 933.3
20260507091901 57 228 1.0 3.0 0.00 0.00 0.00 70 933.4
20260507091800 57 247 2.0 2.0 0.00 0.00 0.00 69 933.5
20260507091701 57 236 2.0 2.0 0.00 0.00 0.00 68 933.3
20260507091601 57 241 1.0 3.0 0.00 0.00 0.00 67 933.4
20260507091501 58 283 2.0 4.0 0.00 0.00 0.00 70 933.5
20260507091401 58 205 3.0 4.0 0.00 0.00 0.00 69 933.3
20260507091301 58 164 3.0 3.0 0.00 0.00 0.00 66 933.4
20260507091202 58 164 3.0 3.0 0.00 0.00 0.00 66 933.4
20260507091102 58 222 3.0 3.0 0.00 0.00 0.00 67 933.4
20260507091000 58 203 3.0 4.0 0.00 0.00 0.00 68 933.4
20260507090901 58 203 3.0 4.0 0.00 0.00 0.00 68 933.4
20260507090801 57 216 3.0 3.0 0.00 0.00 0.00 71 933.2
20260507090702 57 242 1.0 3.0 0.00 0.00 0.00 69 933.3
20260507090601 57 224 1.0 3.0 0.00 0.00 0.00 69 933.3
20260507090501 57 216 3.0 3.0 0.00 0.00 0.00 69 933.3
20260507090401 57 187 1.0 3.0 0.00 0.00 0.00 68 933.3
20260507090301 57 225 2.0 3.0 0.00 0.00 0.00 69 933.3
20260507090200 57 172 1.0 3.0 0.00 0.00 0.00 69 933.3
20260507090100 56 222 1.0 4.0 0.00 0.00 0.00 69 933.4
20260507090002 56 224 2.0 4.0 0.00 0.00 0.00 70 933.4
20260507085901 56 229 1.0 2.0 0.00 0.00 0.00 70 933.2
20260507085800 56 271 1.0 3.0 0.00 0.00 0.00 70 933.2
20260507085702 56 231 2.0 3.0 0.00 0.00 0.00 70 933.3
20260507085601 56 193 2.0 3.0 0.00 0.00 0.00 68 933.2
20260507085501 56 230 1.0 2.0 0.00 0.00 0.00 68 933.0
20260507085401 56 291 1.0 2.0 0.00 0.00 0.00 69 933.2
20260507085301 55 241 1.0 2.0 0.00 0.00 0.00 73 933.4
20260507085201 55 214 1.0 2.0 0.00 0.00 0.00 72 933.3
20260507085101 55 222 1.0 2.0 0.00 0.00 0.00 72 933.4
20260507085001 55 235 1.0 2.0 0.00 0.00 0.00 71 933.1
20260507084901 55 220 1.0 2.0 0.00 0.00 0.00 72 933.2
20260507084801 55 261 1.0 2.0 0.00 0.00 0.00 71 933.2
20260507084702 55 220 1.0 3.0 0.00 0.00 0.00 70 933.1
20260507084601 55 284 1.0 3.0 0.00 0.00 0.00 70 933.2
20260507084501 55 222 1.0 3.0 0.00 0.00 0.00 70 933.2
20260507084401 55 224 2.0 3.0 0.00 0.00 0.00 70 933.2
20260507084301 56 234 1.0 2.0 0.00 0.00 0.00 71 933.1
20260507084200 56 223 1.0 4.0 0.00 0.00 0.00 72 933.2
20260507084101 56 223 3.0 4.0 0.00 0.00 0.00 71 933.1
20260507084001 56 282 1.0 3.0 0.00 0.00 0.00 71 932.9
20260507083901 56 205 2.0 3.0 0.00 0.00 0.00 71 932.9
20260507083801 56 284 1.0 2.0 0.00 0.00 0.00 70 933.0
20260507083701 55 260 1.0 3.0 0.00 0.00 0.00 75 933.2
20260507083601 55 276 1.0 3.0 0.00 0.00 0.00 74 933.1
20260507083501 54 205 1.0 3.0 0.00 0.00 0.00 76 933.0
20260507083401 54 185 2.0 3.0 0.00 0.00 0.00 75 933.0
20260507083302 54 208 3.0 3.0 0.00 0.00 0.00 74 932.9
20260507083201 54 201 2.0 3.0 0.00 0.00 0.00 74 933.0
20260507083101 54 282 1.0 2.0 0.00 0.00 0.00 74 933.1
20260507083001 55 234 1.0 2.0 0.00 0.00 0.00 73 933.0
20260507082901 55 283 1.0 3.0 0.00 0.00 0.00 73 933.2
20260507082801 55 282 1.0 3.0 0.00 0.00 0.00 74 933.0
20260507082701 55 232 1.0 2.0 0.00 0.00 0.00 74 932.8
20260507082601 55 240 1.0 3.0 0.00 0.00 0.00 74 933.1
20260507082501 54 283 1.0 3.0 0.00 0.00 0.00 76 932.9
20260507082402 54 188 3.0 3.0 0.00 0.00 0.00 77 933.0
20260507082301 54 193 3.0 3.0 0.00 0.00 0.00 75 933.1
20260507082201 54 222 1.0 3.0 0.00 0.00 0.00 76 933.0
20260507082100 54 208 2.0 3.0 0.00 0.00 0.00 75 932.9
20260507082001 54 218 2.0 3.0 0.00 0.00 0.00 75 933.1
20260507081901 54 236 0.0 1.0 0.00 0.00 0.00 76 932.9
20260507081802 54 269 0.0 1.0 0.00 0.00 0.00 76 932.8
20260507081700 54 256 0.0 1.0 0.00 0.00 0.00 76 933.0
20260507081601 54 284 0.0 1.0 0.00 0.00 0.00 77 933.0
20260507081501 54 284 0.0 1.0 0.00 0.00 0.00 76 933.0
20260507081402 55 240 0.0 1.0 0.00 0.00 0.00 76 932.9
20260507081301 55 234 1.0 1.0 0.00 0.00 0.00 75 933.0
20260507081201 55 243 1.0 1.0 0.00 0.00 0.00 76 932.9
20260507081101 55 220 0.0 2.0 0.00 0.00 0.00 75 933.0
20260507081001 55 220 0.0 2.0 0.00 0.00 0.00 75 933.0
20260507080901 55 226 1.0 3.0 0.00 0.00 0.00 76 933.0
20260507080801 55 219 1.0 3.0 0.00 0.00 0.00 76 932.9
20260507080700 54 213 1.0 3.0 0.00 0.00 0.00 77 932.9
20260507080601 54 245 1.0 3.0 0.00 0.00 0.00 80 932.8
20260507080501 54 289 1.0 2.0 0.00 0.00 0.00 79 933.0
20260507080401 53 206 1.0 2.0 0.00 0.00 0.00 79 933.0
20260507080301 53 217 1.0 2.0 0.00 0.00 0.00 80 932.9
20260507080202 53 201 1.0 3.0 0.00 0.00 0.00 79 933.0
20260507080002 53 209 2.0 3.0 0.00 0.00 0.00 78 932.9
20260507075901 53 204 2.0 3.0 0.00 0.00 0.00 77 932.9
20260507075801 53 211 2.0 3.0 0.00 0.00 0.00 80 933.0
20260507075700 53 229 0.0 1.0 0.00 0.00 0.00 79 933.0
20260507075601 53 277 1.0 1.0 0.00 0.00 0.00 79 932.8
20260507075501 53 274 1.0 1.0 0.00 0.00 0.00 79 933.0
20260507075401 53 279 1.0 2.0 0.00 0.00 0.00 78 932.8
20260507075300 53 219 1.0 2.0 0.00 0.00 0.00 78 932.9
20260507075201 53 279 1.0 2.0 0.00 0.00 0.00 79 933.1
20260507075101 53 248 1.0 2.0 0.00 0.00 0.00 79 932.9
20260507075001 53 247 1.0 2.0 0.00 0.00 0.00 78 933.0
20260507074900 53 238 1.0 2.0 0.00 0.00 0.00 78 932.9
20260507074801 53 275 1.0 1.0 0.00 0.00 0.00 80 932.8
20260507074701 53 286 1.0 1.0 0.00 0.00 0.00 81 933.0
20260507074600 53 277 1.0 3.0 0.00 0.00 0.00 80 933.0
20260507074501 53 296 1.0 4.0 0.00 0.00 0.00 81 932.9
20260507074401 53 203 3.0 4.0 0.00 0.00 0.00 80 932.8
20260507074301 53 227 2.0 4.0 0.00 0.00 0.00 81 932.9
20260507074201 53 230 1.0 3.0 0.00 0.00 0.00 82 932.6
20260507074101 53 222 1.0 3.0 0.00 0.00 0.00 82 932.8
20260507074001 53 215 2.0 3.0 0.00 0.00 0.00 83 932.8
20260507073901 53 233 1.0 2.0 0.00 0.00 0.00 84 932.9
20260507073802 53 232 0.0 2.0 0.00 0.00 0.00 84 932.9
20260507073701 53 225 1.0 2.0 0.00 0.00 0.00 84 932.8
20260507073601 53 220 2.0 2.0 0.00 0.00 0.00 84 932.9
20260507073501 53 218 1.0 2.0 0.00 0.00 0.00 83 932.9
20260507073401 52 227 1.0 2.0 0.00 0.00 0.00 83 933.0
20260507073300 52 275 1.0 2.0 0.00 0.00 0.00 84 932.9
20260507073201 52 218 1.0 2.0 0.00 0.00 0.00 83 933.0
20260507073102 53 222 1.0 3.0 0.00 0.00 0.00 84 932.9
20260507073002 53 221 2.0 3.0 0.00 0.00 0.00 83 932.7
20260507072901 52 246 1.0 2.0 0.00 0.00 0.00 84 933.0
20260507072801 52 231 1.0 2.0 0.00 0.00 0.00 84 932.8
20260507072701 52 220 1.0 2.0 0.00 0.00 0.00 84 932.9
20260507072601 53 244 1.0 4.0 0.00 0.00 0.00 84 932.9
20260507072501 53 224 3.0 4.0 0.00 0.00 0.00 84 932.9
20260507072400 52 212 2.0 3.0 0.00 0.00 0.00 85 932.9
20260507072301 52 224 2.0 3.0 0.00 0.00 0.00 86 932.7
20260507072201 52 214 2.0 3.0 0.00 0.00 0.00 86 932.9
20260507072101 52 212 2.0 3.0 0.00 0.00 0.00 86 932.7
20260507072001 52 219 2.0 3.0 0.00 0.00 0.00 86 932.9
20260507071901 52 210 2.0 3.0 0.00 0.00 0.00 86 932.8
20260507071801 52 221 2.0 3.0 0.00 0.00 0.00 87 932.7
20260507071701 52 212 2.0 3.0 0.00 0.00 0.00 86 932.8
20260507071601 52 225 2.0 3.0 0.00 0.00 0.00 86 932.8
20260507071502 52 221 1.0 3.0 0.00 0.00 0.00 87 932.7
20260507071401 52 266 1.0 1.0 0.00 0.00 0.00 86 932.8
20260507071302 52 264 1.0 1.0 0.00 0.00 0.00 86 932.6
20260507071201 52 242 1.0 3.0 0.00 0.00 0.00 86 932.8
20260507071101 52 238 1.0 3.0 0.00 0.00 0.00 86 932.6
20260507071001 52 227 2.0 3.0 0.00 0.00 0.00 86 932.5
20260507070901 52 227 2.0 3.0 0.00 0.00 0.00 86 932.5
20260507070801 52 229 2.0 4.0 0.00 0.00 0.00 87 932.8
20260507070701 52 204 3.0 4.0 0.00 0.00 0.00 87 932.6
20260507070600 51 204 2.0 3.0 0.00 0.00 0.00 87 932.7
20260507070502 51 213 3.0 3.0 0.00 0.00 0.00 87 932.8
20260507070401 51 231 1.0 3.0 0.00 0.00 0.00 88 932.6
20260507070302 51 209 1.0 3.0 0.00 0.00 0.00 88 932.5
20260507070201 51 215 3.0 3.0 0.00 0.00 0.00 88 932.6
20260507070001 51 220 3.0 4.0 0.00 0.00 0.00 88 932.7
20260507065901 51 210 2.0 4.0 0.00 0.00 0.00 88 932.6
20260507065801 51 220 2.0 3.0 0.00 0.00 0.00 88 932.8
20260507065701 51 214 2.0 3.0 0.00 0.00 0.00 88 932.7
20260507065601 51 223 2.0 3.0 0.00 0.00 0.00 88 932.6
20260507065501 51 217 3.0 3.0 0.00 0.00 0.00 88 932.5
20260507065401 51 207 1.0 2.0 0.00 0.00 0.00 88 932.5
20260507065301 51 223 1.0 2.0 0.00 0.00 0.00 88 932.6
20260507065201 51 284 1.0 1.0 0.00 0.00 0.00 88 932.6
20260507065100 51 254 1.0 2.0 0.00 0.00 0.00 87 932.8
20260507065002 51 220 1.0 2.0 0.00 0.00 0.00 87 932.5
20260507064901 51 235 1.0 2.0 0.00 0.00 0.00 88 932.6
20260507064801 51 266 1.0 2.0 0.00 0.00 0.00 87 932.5
20260507064701 51 287 1.0 1.0 0.00 0.00 0.00 88 932.6
20260507064601 51 276 1.0 2.0 0.00 0.00 0.00 88 932.9
20260507064500 51 259 1.0 2.0 0.00 0.00 0.00 88 932.6
20260507064401 51 236 1.0 2.0 0.00 0.00 0.00 88 932.8
20260507064301 51 225 1.0 2.0 0.00 0.00 0.00 88 932.5
20260507064201 51 270 1.0 2.0 0.00 0.00 0.00 88 932.7
20260507064101 51 273 1.0 2.0 0.00 0.00 0.00 88 932.4
20260507064000 51 259 1.0 2.0 0.00 0.00 0.00 88 932.5
20260507063901 51 284 1.0 2.0 0.00 0.00 0.00 88 932.6
20260507063801 51 233 1.0 2.0 0.00 0.00 0.00 88 932.4
20260507063701 51 236 1.0 2.0 0.00 0.00 0.00 89 932.5
20260507063600 51 247 1.0 3.0 0.00 0.00 0.00 89 932.5
20260507063502 51 236 2.0 3.0 0.00 0.00 0.00 89 932.5
20260507063401 51 228 1.0 1.0 0.00 0.00 0.00 90 932.3
20260507063301 51 232 1.0 1.0 0.00 0.00 0.00 90 932.5
20260507063201 51 219 1.0 2.0 0.00 0.00 0.00 90 932.5
20260507063101 51 228 1.0 2.0 0.00 0.00 0.00 90 932.5
20260507063002 51 249 1.0 2.0 0.00 0.00 0.00 90 932.4
20260507062901 51 223 1.0 3.0 0.00 0.00 0.00 91 932.5
20260507062801 51 208 2.0 3.0 0.00 0.00 0.00 90 932.4
20260507062701 51 230 1.0 3.0 0.00 0.00 0.00 90 932.2
20260507062601 51 235 2.0 3.0 0.00 0.00 0.00 91 932.5
20260507062500 51 226 1.0 1.0 0.00 0.00 0.00 90 932.5
20260507062401 51 228 1.0 3.0 0.00 0.00 0.00 90 932.4
20260507062301 51 210 1.0 3.0 0.00 0.00 0.00 90 932.5
20260507062201 51 223 2.0 2.0 0.00 0.00 0.00 90 932.4
20260507062101 51 233 1.0 3.0 0.00 0.00 0.00 90 932.2
20260507062001 51 231 1.0 3.0 0.00 0.00 0.00 90 932.5
20260507061901 51 222 1.0 2.0 0.00 0.00 0.00 90 932.3
20260507061800 51 202 2.0 2.0 0.00 0.00 0.00 90 932.2
20260507061701 51 238 1.0 3.0 0.00 0.00 0.00 90 932.2
20260507061601 51 230 1.0 3.0 0.00 0.00 0.00 90 932.1
20260507061502 51 218 2.0 4.0 0.00 0.00 0.00 89 932.1
20260507061401 51 227 3.0 4.0 0.00 0.00 0.00 90 932.2
20260507061301 51 216 3.0 4.0 0.00 0.00 0.00 90 932.0
20260507061201 51 213 1.0 3.0 0.00 0.00 0.00 89 931.9
20260507061101 51 223 2.0 4.0 0.00 0.00 0.00 89 932.2
20260507061002 51 223 2.0 4.0 0.00 0.00 0.00 89 932.2
20260507060901 51 221 2.0 3.0 0.00 0.00 0.00 90 932.1
20260507060801 51 221 2.0 3.0 0.00 0.00 0.00 90 932.1
20260507060701 51 225 1.0 2.0 0.00 0.00 0.00 90 932.0
20260507060601 51 226 1.0 3.0 0.00 0.00 0.00 90 932.0
20260507060501 51 222 1.0 3.0 0.00 0.00 0.00 90 932.0
20260507060400 51 213 1.0 2.0 0.00 0.00 0.00 90 932.0
20260507060301 51 267 1.0 1.0 0.00 0.00 0.00 90 932.1
20260507060202 51 256 1.0 1.0 0.00 0.00 0.00 90 932.0
20260507060100 51 218 0.0 2.0 0.00 0.00 0.00 90 932.0
20260507060001 51 218 1.0 1.0 0.00 0.00 0.00 91 932.0
20260507055901 51 221 1.0 1.0 0.00 0.00 0.00 91 931.9
20260507055801 51 221 1.0 2.0 0.00 0.00 0.00 91 932.1
20260507055701 51 192 1.0 1.0 0.00 0.00 0.00 91 931.9
20260507055601 51 227 0.0 1.0 0.00 0.00 0.00 91 931.9
20260507055501 51 220 1.0 1.0 0.00 0.00 0.00 91 931.9
20260507055400 51 219 1.0 2.0 0.00 0.00 0.00 91 931.9
20260507055301 51 231 0.0 2.0 0.00 0.00 0.00 91 931.7
20260507055201 51 215 1.0 3.0 0.00 0.00 0.00 91 931.9
20260507055101 51 209 2.0 3.0 0.00 0.00 0.00 91 931.8
20260507055001 51 222 2.0 2.0 0.00 0.00 0.00 91 931.9
20260507054902 51 215 1.0 2.0 0.00 0.00 0.00 90 931.9
20260507054801 51 216 2.0 2.0 0.00 0.00 0.00 90 932.1
20260507054701 51 223 1.0 2.0 0.00 0.00 0.00 90 931.8
20260507054601 51 222 2.0 2.0 0.00 0.00 0.00 90 932.0
20260507054501 51 236 1.0 2.0 0.00 0.00 0.00 91 932.0
20260507054401 51 220 1.0 1.0 0.00 0.00 0.00 91 931.8
20260507054301 51 235 1.0 1.0 0.00 0.00 0.00 91 931.9
20260507054201 51 244 1.0 2.0 0.00 0.00 0.00 91 932.0
20260507054101 51 225 1.0 2.0 0.00 0.00 0.00 91 931.9
20260507054000 51 221 1.0 1.0 0.00 0.00 0.00 91 931.9
20260507053901 51 217 1.0 1.0 0.00 0.00 0.00 91 931.9
20260507053801 51 219 1.0 2.0 0.00 0.00 0.00 91 932.0
20260507053701 51 211 1.0 2.0 0.00 0.00 0.00 91 931.7
20260507053601 51 207 1.0 2.0 0.00 0.00 0.00 91 932.0
20260507053501 51 223 1.0 2.0 0.00 0.00 0.00 91 931.9
20260507053401 51 216 2.0 2.0 0.00 0.00 0.00 91 931.9
20260507053301 51 215 1.0 2.0 0.00 0.00 0.00 91 931.8
20260507053100 51 216 2.0 3.0 0.00 0.00 0.00 91 931.6
20260507053000 51 221 1.0 2.0 0.00 0.00 0.00 91 931.7
20260507052901 51 224 1.0 3.0 0.00 0.00 0.00 91 931.7
20260507052801 51 212 2.0 3.0 0.00 0.00 0.00 91 931.6
20260507052701 51 221 1.0 3.0 0.00 0.00 0.00 91 931.6
20260507052600 51 210 1.0 3.0 0.00 0.00 0.00 91 931.6
20260507052501 51 212 2.0 3.0 0.00 0.00 0.00 92 931.7
20260507052401 51 190 2.0 3.0 0.00 0.00 0.00 92 931.5
20260507052300 51 205 2.0 2.0 0.00 0.00 0.00 92 931.8
20260507052202 50 214 2.0 2.0 0.00 0.00 0.00 92 931.7
20260507052101 50 194 2.0 3.0 0.00 0.00 0.00 92 931.5
20260507052001 50 219 2.0 3.0 0.00 0.00 0.00 92 931.7
20260507051901 50 231 2.0 3.0 0.00 0.00 0.00 92 931.8
20260507051801 50 207 2.0 3.0 0.00 0.00 0.00 92 931.7
20260507051706 50 211 2.0 2.0 0.00 0.00 0.00 92 931.5
20260507051601 50 228 1.0 2.0 0.00 0.00 0.00 92 931.7
20260507051506 50 212 2.0 3.0 0.00 0.00 0.00 92 931.5
20260507051402 50 211 3.0 3.0 0.00 0.00 0.00 92 931.7
20260507051301 50 205 2.0 3.0 0.00 0.00 0.00 92 931.8
20260507051201 50 217 2.0 3.0 0.00 0.00 0.00 92 931.6
20260507051101 50 221 2.0 3.0 0.00 0.00 0.00 92 931.7
20260507050901 50 217 2.0 3.0 0.00 0.00 0.00 92 931.6
20260507050800 50 218 2.0 3.0 0.00 0.00 0.00 92 931.6
20260507050700 50 218 2.0 3.0 0.00 0.00 0.00 92 931.6
20260507050601 50 218 2.0 3.0 0.00 0.00 0.00 92 931.7
20260507050501 50 200 2.0 3.0 0.00 0.00 0.00 93 931.6
20260507050402 50 246 1.0 2.0 0.00 0.00 0.00 93 931.5
20260507050301 50 220 1.0 2.0 0.00 0.00 0.00 93 931.6
20260507050201 50 217 1.0 2.0 0.00 0.00 0.00 93 931.7
20260507050100 50 232 1.0 2.0 0.00 0.00 0.00 93 931.6
20260507050006 50 208 2.0 2.0 0.00 0.00 0.00 93 931.5
20260507045901 50 212 1.0 2.0 0.00 0.00 0.00 93 931.5
20260507045801 50 222 1.0 2.0 0.00 0.00 0.00 93 931.6
20260507045701 50 223 1.0 2.0 0.00 0.00 0.00 93 931.5
20260507045601 50 224 1.0 2.0 0.00 0.00 0.00 93 931.5
20260507045500 50 213 1.0 2.0 0.00 0.00 0.00 93 931.5
20260507045400 50 218 2.0 2.0 0.00 0.00 0.00 93 931.4
20260507045301 50 229 1.0 2.0 0.00 0.00 0.00 93 931.5
20260507045201 50 238 1.0 2.0 0.00 0.00 0.00 93 931.5
20260507045101 50 216 2.0 2.0 0.00 0.00 0.00 93 931.3
20260507045002 50 219 1.0 2.0 0.00 0.00 0.00 93 931.4
20260507044903 50 222 1.0 2.0 0.00 0.00 0.00 93 931.5
20260507044801 50 215 1.0 2.0 0.00 0.00 0.00 93 931.4
20260507044701 50 228 1.0 2.0 0.00 0.00 0.00 93 931.4
20260507044601 50 234 1.0 2.0 0.00 0.00 0.00 93 931.4
20260507044501 50 219 0.0 1.0 0.00 0.00 0.00 93 931.3
20260507044400 50 222 1.0 1.0 0.00 0.00 0.00 93 931.3
20260507044201 50 217 1.0 1.0 0.00 0.00 0.00 93 931.3
20260507044101 50 225 1.0 1.0 0.00 0.00 0.00 93 931.4
20260507044001 50 220 1.0 2.0 0.00 0.00 0.00 93 931.3
20260507043901 50 230 1.0 2.0 0.00 0.00 0.00 93 931.1
20260507043802 50 237 1.0 2.0 0.00 0.00 0.00 93 931.4
20260507043701 50 227 1.0 2.0 0.00 0.00 0.00 92 931.1
20260507043601 50 228 1.0 2.0 0.00 0.00 0.00 92 931.3
20260507043502 50 230 1.0 3.0 0.00 0.00 0.00 92 931.4
20260507043400 50 220 1.0 2.0 0.00 0.00 0.00 92 931.2
20260507043301 50 233 0.0 1.0 0.00 0.00 0.00 92 931.4
20260507043207 51 237 1.0 1.0 0.00 0.00 0.00 92 931.1
20260507043101 51 230 1.0 2.0 0.00 0.00 0.00 92 931.2
20260507043001 51 227 1.0 2.0 0.00 0.00 0.00 92 931.1
20260507042902 51 232 1.0 2.0 0.00 0.00 0.00 92 931.2
20260507042801 51 225 1.0 2.0 0.00 0.00 0.00 92 931.1
20260507042701 51 233 1.0 2.0 0.00 0.00 0.00 92 931.1
20260507042601 51 249 1.0 1.0 0.00 0.00 0.00 92 931.4
20260507042501 51 245 1.0 2.0 0.00 0.00 0.00 92 931.2
20260507042402 50 233 1.0 2.0 0.00 0.00 0.00 93 930.9
20260507042301 50 232 0.0 2.0 0.00 0.00 0.00 93 931.1
20260507042200 50 227 1.0 2.0 0.00 0.00 0.00 93 931.2
20260507042102 50 228 1.0 2.0 0.00 0.00 0.00 93 931.1
20260507042001 50 227 1.0 2.0 0.00 0.00 0.00 93 931.2
20260507041900 50 218 1.0 1.0 0.00 0.00 0.00 93 931.2
20260507041801 50 236 1.0 2.0 0.00 0.00 0.00 93 931.1
20260507041701 50 235 1.0 2.0 0.00 0.00 0.00 93 930.9
20260507041601 50 262 1.0 1.0 0.00 0.00 0.00 93 931.0
20260507041501 50 233 1.0 1.0 0.00 0.00 0.00 93 930.8
20260507041401 50 237 1.0 1.0 0.00 0.00 0.00 93 930.9
20260507041301 50 270 0.0 1.0 0.00 0.00 0.00 93 930.7
20260507041201 50 254 0.0 1.0 0.00 0.00 0.00 93 930.8
20260507041100 50 246 0.0 1.0 0.00 0.00 0.00 93 930.9
20260507041003 50 270 0.0 1.0 0.00 0.00 0.00 93 930.9
20260507040901 50 244 1.0 2.0 0.00 0.00 0.00 93 930.7
20260507040800 50 287 1.0 2.0 0.00 0.00 0.00 93 930.8
20260507040701 50 287 1.0 2.0 0.00 0.00 0.00 93 930.8
20260507040601 50 285 0.0 1.0 0.00 0.00 0.00 93 930.8
20260507040501 50 257 1.0 1.0 0.00 0.00 0.00 93 930.7
20260507040401 50 241 0.0 1.0 0.00 0.00 0.00 93 930.8
20260507040302 50 282 1.0 1.0 0.00 0.00 0.00 93 930.9
20260507040201 50 284 1.0 1.0 0.00 0.00 0.00 93 930.8
20260507040001 50 243 0.0 1.0 0.00 0.00 0.00 93 930.9
20260507035901 50 248 1.0 1.0 0.00 0.00 0.00 93 930.7
20260507035801 50 232 1.0 1.0 0.00 0.00 0.00 93 930.9
20260507035701 50 252 1.0 2.0 0.00 0.00 0.00 93 930.9
20260507035601 50 230 1.0 1.0 0.00 0.00 0.00 93 930.9
20260507035501 50 245 1.0 1.0 0.00 0.00 0.00 93 930.9
20260507035401 50 244 1.0 2.0 0.00 0.00 0.00 93 931.0
20260507035301 50 223 1.0 1.0 0.00 0.00 0.00 93 930.8
20260507035201 50 256 1.0 1.0 0.00 0.00 0.00 93 930.9
20260507035101 50 228 1.0 1.0 0.00 0.00 0.00 93 930.8
20260507035001 50 242 0.0 1.0 0.00 0.00 0.00 93 930.6
20260507034901 50 230 1.0 1.0 0.00 0.00 0.00 93 930.7
20260507034801 50 281 1.0 2.0 0.00 0.00 0.00 93 930.9
20260507034701 50 226 1.0 2.0 0.00 0.00 0.00 93 930.6
20260507034601 50 251 1.0 1.0 0.00 0.00 0.00 93 931.0
20260507034501 50 234 0.0 2.0 0.00 0.00 0.00 93 930.9
20260507034401 50 223 1.0 2.0 0.00 0.00 0.00 93 930.9
20260507034305 50 219 1.0 1.0 0.00 0.00 0.00 93 930.8
20260507034201 50 213 0.0 1.0 0.00 0.00 0.00 93 930.6
20260507034102 50 216 1.0 1.0 0.00 0.00 0.00 93 930.8
20260507034000 50 221 1.0 1.0 0.00 0.00 0.00 93 930.9
20260507033901 50 213 1.0 1.0 0.00 0.00 0.00 93 930.8
20260507033801 50 213 0.0 1.0 0.00 0.00 0.00 93 930.6
20260507033701 50 217 0.0 2.0 0.00 0.00 0.00 93 930.8
20260507033602 50 221 1.0 2.0 0.00 0.00 0.00 93 930.8
20260507033501 50 213 1.0 1.0 0.00 0.00 0.00 93 930.8
20260507033401 50 215 1.0 1.0 0.00 0.00 0.00 92 930.7
20260507033301 50 210 1.0 1.0 0.00 0.00 0.00 92 930.7
20260507033203 50 205 1.0 1.0 0.00 0.00 0.00 92 930.8
20260507033101 50 208 1.0 1.0 0.00 0.00 0.00 92 930.6
20260507033001 50 219 1.0 1.0 0.00 0.00 0.00 92 930.6
20260507032901 50 217 1.0 1.0 0.00 0.00 0.00 92 930.7
20260507032801 50 194 1.0 1.0 0.00 0.00 0.00 92 930.5
20260507032701 50 209 1.0 2.0 0.00 0.00 0.00 92 930.6
20260507032602 51 208 1.0 2.0 0.00 0.00 0.00 92 930.7
20260507032501 51 219 2.0 2.0 0.00 0.00 0.00 92 930.8
20260507032401 51 209 1.0 1.0 0.00 0.00 0.00 92 930.6
20260507032301 51 219 1.0 1.0 0.00 0.00 0.00 92 930.8
20260507032201 51 213 1.0 2.0 0.00 0.00 0.00 92 930.8
20260507032100 51 222 1.0 2.0 0.00 0.00 0.00 91 930.7
20260507032001 51 217 1.0 1.0 0.00 0.00 0.00 91 930.6
20260507031902 51 213 1.0 2.0 0.00 0.00 0.00 91 930.7
20260507031801 51 213 1.0 3.0 0.00 0.00 0.00 91 930.6
20260507031701 51 219 2.0 3.0 0.00 0.00 0.00 91 930.7
20260507031601 51 211 2.0 3.0 0.00 0.00 0.00 91 930.6
20260507031501 51 209 2.0 2.0 0.00 0.00 0.00 91 930.6
20260507031401 51 193 2.0 2.0 0.00 0.00 0.00 91 930.4
20260507031301 51 205 1.0 2.0 0.00 0.00 0.00 91 930.5
20260507031201 51 205 2.0 2.0 0.00 0.00 0.00 91 930.4
20260507031101 51 202 1.0 2.0 0.00 0.00 0.00 91 930.6
20260507031001 51 202 2.0 2.0 0.00 0.00 0.00 91 930.6
20260507030901 51 207 1.0 1.0 0.00 0.00 0.00 91 930.5
20260507030801 51 213 1.0 2.0 0.00 0.00 0.00 91 930.4
20260507030701 51 208 1.0 2.0 0.00 0.00 0.00 90 930.4
20260507030601 51 210 2.0 2.0 0.00 0.00 0.00 90 930.5
20260507030501 51 210 2.0 2.0 0.00 0.00 0.00 90 930.5
20260507030401 51 210 1.0 2.0 0.00 0.00 0.00 90 930.5
20260507030301 51 210 2.0 2.0 0.00 0.00 0.00 90 930.7
20260507030201 51 212 1.0 2.0 0.00 0.00 0.00 90 930.7
20260507030101 51 199 1.0 2.0 0.00 0.00 0.00 90 930.5
20260507030001 51 201 1.0 2.0 0.00 0.00 0.00 90 930.3
20260507025901 51 196 1.0 2.0 0.00 0.00 0.00 90 930.2
20260507025801 51 222 2.0 2.0 0.00 0.00 0.00 90 930.4
20260507025701 51 212 2.0 3.0 0.00 0.00 0.00 90 930.4
20260507025601 51 207 2.0 3.0 0.00 0.00 0.00 90 930.4
20260507025501 51 212 2.0 3.0 0.00 0.00 0.00 90 930.4
20260507025401 51 214 2.0 3.0 0.00 0.00 0.00 90 930.5
20260507025301 51 223 1.0 2.0 0.00 0.00 0.00 90 930.5
20260507025201 51 203 2.0 2.0 0.00 0.00 0.00 90 930.3
20260507025101 51 220 2.0 2.0 0.00 0.00 0.00 90 930.5
20260507025001 51 194 1.0 2.0 0.00 0.00 0.00 90 930.4
20260507024901 50 204 1.0 2.0 0.00 0.00 0.00 90 930.4
20260507024801 50 205 1.0 2.0 0.00 0.00 0.00 90 930.4
20260507024701 50 205 2.0 2.0 0.00 0.00 0.00 90 930.4
20260507024601 50 213 1.0 2.0 0.00 0.00 0.00 90 930.4
20260507024501 51 199 1.0 2.0 0.00 0.00 0.00 90 930.3
20260507024401 51 195 1.0 2.0 0.00 0.00 0.00 89 930.3
20260507024301 51 193 1.0 2.0 0.00 0.00 0.00 90 930.5
20260507024206 50 193 2.0 2.0 0.00 0.00 0.00 89 930.2
20260507024101 50 199 2.0 2.0 0.00 0.00 0.00 89 930.2
20260507024001 50 212 2.0 2.0 0.00 0.00 0.00 89 930.4
20260507023901 50 211 1.0 2.0 0.00 0.00 0.00 89 930.1
20260507023801 51 189 1.0 2.0 0.00 0.00 0.00 89 930.2
20260507023701 51 182 1.0 2.0 0.00 0.00 0.00 88 930.1
20260507023601 51 201 1.0 2.0 0.00 0.00 0.00 88 930.1
20260507023501 51 193 1.0 2.0 0.00 0.00 0.00 88 930.2
20260507023400 51 217 1.0 2.0 0.00 0.00 0.00 88 930.2
20260507023301 51 204 2.0 2.0 0.00 0.00 0.00 87 930.2
20260507023201 51 200 1.0 2.0 0.00 0.00 0.00 87 930.2
20260507023101 51 207 1.0 2.0 0.00 0.00 0.00 86 930.1
20260507023001 51 212 1.0 2.0 0.00 0.00 0.00 86 930.1
20260507022901 51 207 1.0 2.0 0.00 0.00 0.00 86 930.3
20260507022802 51 212 2.0 2.0 0.00 0.00 0.00 86 930.1
20260507022701 51 210 1.0 2.0 0.00 0.00 0.00 86 930.1
20260507022601 51 213 2.0 2.0 0.00 0.00 0.00 87 930.1
20260507022501 51 223 1.0 2.0 0.00 0.00 0.00 87 930.1
20260507022401 51 199 1.0 2.0 0.00 0.00 0.00 87 930.3
20260507022300 51 210 1.0 1.0 0.00 0.00 0.00 88 930.1
20260507022201 51 200 1.0 1.0 0.00 0.00 0.00 88 930.1
20260507022101 51 210 1.0 1.0 0.00 0.00 0.00 88 930.1
20260507022003 51 208 1.0 1.0 0.00 0.00 0.00 88 930.3
20260507021903 51 194 1.0 1.0 0.00 0.00 0.00 89 930.3
20260507021801 51 205 1.0 1.0 0.00 0.00 0.00 89 930.3
20260507021701 51 195 1.0 1.0 0.00 0.00 0.00 89 930.1
20260507021601 51 196 1.0 1.0 0.00 0.00 0.00 89 930.3
20260507021501 51 191 1.0 1.0 0.00 0.00 0.00 89 930.2
20260507021401 50 212 0.0 1.0 0.00 0.00 0.00 89 930.4
20260507021300 50 212 1.0 1.0 0.00 0.00 0.00 89 930.3
20260507021201 50 213 1.0 1.0 0.00 0.00 0.00 90 930.1
20260507021101 50 216 1.0 1.0 0.00 0.00 0.00 90 930.1
20260507021001 50 230 1.0 1.0 0.00 0.00 0.00 90 930.5
20260507020901 50 213 0.0 1.0 0.00 0.00 0.00 90 930.3
20260507020801 50 214 0.0 1.0 0.00 0.00 0.00 90 930.3
20260507020701 50 216 0.0 1.0 0.00 0.00 0.00 90 930.3
20260507020601 50 216 0.0 1.0 0.00 0.00 0.00 90 930.4
20260507020501 50 216 0.0 1.0 0.00 0.00 0.00 90 930.4
20260507020401 50 216 1.0 1.0 0.00 0.00 0.00 90 930.4
20260507020301 50 222 1.0 1.0 0.00 0.00 0.00 91 930.5
20260507020201 50 217 1.0 2.0 0.00 0.00 0.00 91 930.3
20260507020100 50 211 2.0 2.0 0.00 0.00 0.00 91 930.3
20260507020001 50 205 1.0 1.0 0.00 0.00 0.00 91 930.2
20260507015902 50 220 1.0 1.0 0.00 0.00 0.00 92 930.4
20260507015801 50 221 0.0 1.0 0.00 0.00 0.00 92 930.1
20260507015701 50 214 1.0 1.0 0.00 0.00 0.00 92 930.3
20260507015601 50 205 1.0 1.0 0.00 0.00 0.00 92 930.5
20260507015501 49 208 1.0 2.0 0.00 0.00 0.00 92 930.5
20260507015401 49 212 1.0 2.0 0.00 0.00 0.00 93 930.4
20260507015301 49 212 1.0 1.0 0.00 0.00 0.00 93 930.4
20260507015201 49 214 1.0 2.0 0.00 0.00 0.00 92 930.4
20260507015100 50 213 1.0 1.0 0.00 0.00 0.00 92 930.2
20260507015001 50 212 1.0 1.0 0.00 0.00 0.00 92 930.3
20260507014901 50 211 1.0 2.0 0.00 0.00 0.00 92 930.5
20260507014800 50 212 1.0 2.0 0.00 0.00 0.00 92 930.2
20260507014702 50 208 1.0 2.0 0.00 0.00 0.00 92 930.3
20260507014601 50 213 1.0 2.0 0.00 0.00 0.00 92 930.4
20260507014501 50 203 2.0 2.0 0.00 0.00 0.00 91 930.0
20260507014400 50 202 2.0 2.0 0.00 0.00 0.00 91 930.1
20260507014301 50 202 1.0 2.0 0.00 0.00 0.00 91 930.2
20260507014201 50 199 1.0 2.0 0.00 0.00 0.00 91 930.2
20260507014101 50 195 2.0 2.0 0.00 0.00 0.00 91 930.1
20260507014001 50 206 1.0 2.0 0.00 0.00 0.00 91 930.2
20260507013901 50 215 1.0 2.0 0.00 0.00 0.00 91 930.2
20260507013801 50 203 1.0 2.0 0.00 0.00 0.00 90 930.1
20260507013700 50 199 1.0 2.0 0.00 0.00 0.00 90 930.1
20260507013601 50 194 1.0 2.0 0.00 0.00 0.00 90 930.2
20260507013501 50 209 1.0 2.0 0.00 0.00 0.00 90 930.1
20260507013402 50 216 2.0 2.0 0.00 0.00 0.00 90 930.1
20260507013300 50 209 1.0 1.0 0.00 0.00 0.00 90 929.9
20260507013201 50 196 1.0 1.0 0.00 0.00 0.00 91 930.0
20260507013100 50 200 1.0 2.0 0.00 0.00 0.00 91 930.1
20260507013001 50 211 1.0 2.0 0.00 0.00 0.00 91 930.0
20260507012900 50 216 1.0 2.0 0.00 0.00 0.00 91 930.0
20260507012801 50 211 1.0 1.0 0.00 0.00 0.00 91 930.1
20260507012701 50 188 1.0 1.0 0.00 0.00 0.00 91 930.1
20260507012601 50 187 1.0 1.0 0.00 0.00 0.00 92 930.1
20260507012501 50 194 1.0 1.0 0.00 0.00 0.00 92 930.0
20260507012401 50 209 1.0 1.0 0.00 0.00 0.00 92 930.1
20260507012301 50 215 1.0 1.0 0.00 0.00 0.00 92 929.9
20260507012201 50 209 1.0 1.0 0.00 0.00 0.00 92 930.1
20260507012101 50 209 1.0 1.0 0.00 0.00 0.00 92 930.2
20260507012000 50 215 1.0 1.0 0.00 0.00 0.00 93 930.0
20260507011901 50 207 1.0 2.0 0.00 0.00 0.00 93 930.0
20260507011801 50 209 1.0 2.0 0.00 0.00 0.00 93 930.0
20260507011700 50 209 1.0 2.0 0.00 0.00 0.00 94 930.0
20260507011601 50 212 1.0 1.0 0.00 0.00 0.00 94 930.1
20260507011501 50 212 1.0 1.0 0.00 0.00 0.00 95 930.0
20260507011401 50 211 1.0 1.0 0.00 0.00 0.00 95 930.0
20260507011302 49 211 1.0 1.0 0.00 0.00 0.00 95 930.0
20260507011202 49 211 1.0 1.0 0.00 0.00 0.00 95 930.1
20260507011101 49 160 1.0 1.0 0.00 0.00 0.00 95 929.7
20260507011001 49 160 1.0 1.0 0.00 0.00 0.00 95 929.9
20260507010900 49 160 0.0 1.0 0.00 0.00 0.00 95 929.8
20260507010801 49 160 1.0 1.0 0.00 0.00 0.00 95 929.6
20260507010700 49 159 1.0 1.0 0.00 0.00 0.00 95 929.8
20260507010600 49 160 1.0 1.0 0.00 0.00 0.00 95 929.8
20260507010501 49 159 1.0 1.0 0.00 0.00 0.00 95 929.7
20260507010401 49 159 1.0 1.0 0.00 0.00 0.00 95 929.7
20260507010301 49 159 0.0 1.0 0.00 0.00 0.00 95 929.8
20260507010201 49 160 1.0 1.0 0.00 0.00 0.00 94 929.7
20260507010101 49 160 1.0 1.0 0.00 0.00 0.00 94 929.9
20260507010001 49 165 1.0 1.0 0.00 0.00 0.00 94 929.8
20260507005901 49 163 1.0 1.0 0.00 0.00 0.00 94 929.8
20260507005800 49 158 1.0 1.0 0.00 0.00 0.00 94 929.9
20260507005701 49 153 1.0 1.0 0.00 0.00 0.00 94 929.7
20260507005601 49 153 1.0 1.0 0.00 0.00 0.00 94 929.9
20260507005501 50 158 1.0 1.0 0.00 0.00 0.00 93 929.7
20260507005401 50 158 1.0 1.0 0.00 0.00 0.00 93 929.9
20260507005301 50 169 1.0 1.0 0.00 0.00 0.00 93 929.8
20260507005201 50 176 1.0 1.0 0.00 0.00 0.00 93 929.8
20260507005101 50 175 1.0 2.0 0.00 0.00 0.00 93 929.9
20260507005001 50 188 1.0 2.0 0.00 0.00 0.00 93 929.9
20260507004901 50 190 1.0 2.0 0.00 0.00 0.00 93 929.5
20260507004801 50 195 1.0 2.0 0.00 0.00 0.00 93 929.8
20260507004701 50 212 1.0 2.0 0.00 0.00 0.00 93 929.9
20260507004601 50 216 1.0 1.0 0.00 0.00 0.00 92 930.0
20260507004501 50 216 1.0 2.0 0.00 0.00 0.00 92 929.9
20260507004400 50 219 1.0 2.0 0.00 0.00 0.00 91 929.9
20260507004301 50 214 2.0 2.0 0.00 0.00 0.00 91 930.0
20260507004201 50 194 1.0 1.0 0.00 0.00 0.00 90 930.0
20260507004107 51 197 1.0 1.0 0.00 0.00 0.00 90 930.0
20260507004001 51 176 1.0 1.0 0.00 0.00 0.00 90 929.7
20260507003900 51 172 1.0 1.0 0.00 0.00 0.00 89 929.8
20260507003801 51 167 1.0 1.0 0.00 0.00 0.00 89 929.8
20260507003701 51 160 1.0 1.0 0.00 0.00 0.00 89 929.7
20260507003600 51 125 0.0 1.0 0.00 0.00 0.00 89 929.7
20260507003501 51 124 0.0 1.0 0.00 0.00 0.00 89 929.6
20260507003401 51 10 0.0 0.0 0.00 0.00 0.00 89 929.7
20260507003301 51 10 0.0 0.0 0.00 0.00 0.00 89 929.7
20260507003201 51 9 0.0 0.0 0.00 0.00 0.00 89 929.5
20260507003101 51 9 0.0 0.0 0.00 0.00 0.00 89 929.6
20260507003002 51 9 0.0 0.0 0.00 0.00 0.00 89 929.7
20260507002901 51 9 0.0 1.0 0.00 0.00 0.00 89 929.5
20260507002800 51 16 1.0 1.0 0.00 0.00 0.00 89 929.8
20260507002700 51 1 1.0 1.0 0.00 0.00 0.00 89 929.7
20260507002607 51 30 1.0 1.0 0.00 0.00 0.00 89 929.6
20260507002501 51 36 0.0 0.0 0.00 0.00 0.00 89 929.6
20260507002401 51 36 0.0 0.0 0.00 0.00 0.00 89 929.6
20260507002300 51 37 0.0 0.0 0.00 0.00 0.00 89 929.4
20260507002201 51 330 0.0 0.0 0.00 0.00 0.00 89 929.5
20260507002101 51 330 0.0 0.0 0.00 0.00 0.00 89 929.4
20260507002001 51 330 0.0 0.0 0.00 0.00 0.00 89 929.6
20260507001900 51 330 0.0 0.0 0.00 0.00 0.00 89 929.4
20260507001801 51 330 0.0 0.0 0.00 0.00 0.00 89 929.6
20260507001700 51 330 0.0 0.0 0.00 0.00 0.00 89 929.4
20260507001601 51 329 0.0 0.0 0.00 0.00 0.00 89 929.7
20260507001501 51 329 0.0 0.0 0.00 0.00 0.00 89 929.6
20260507001401 51 329 0.0 1.0 0.00 0.00 0.00 89 929.7
20260507001301 51 329 0.0 1.0 0.00 0.00 0.00 89 929.5
20260507001201 51 322 1.0 1.0 0.00 0.00 0.00 89 929.5
20260507001100 51 328 0.0 1.0 0.00 0.00 0.00 89 929.3
20260507001001 51 336 1.0 1.0 0.00 0.00 0.00 88 929.4
20260507000901 51 342 1.0 1.0 0.00 0.00 0.00 88 929.3
20260507000801 51 358 1.0 1.0 0.00 0.00 0.00 89 929.3
20260507000701 51 338 1.0 1.0 0.00 0.00 0.00 88 929.3
20260507000602 51 24 1.0 1.0 0.00 0.00 0.00 88 929.3
20260507000501 51 20 1.0 1.0 0.00 0.00 0.00 88 929.2
20260507000401 51 351 1.0 1.0 0.00 0.00 0.00 88 929.3
20260507000301 51 351 1.0 1.0 0.00 0.00 0.00 88 929.3
20260507000201 51 346 1.0 1.0 0.00 0.00 0.00 88 929.2
20260507000002 51 345 1.0 1.0 0.00 0.00 0.00 89 929.3
20260506235901 51 342 1.0 1.0 0.00 0.00 0.00 89 929.4
20260506235801 51 334 1.0 1.0 0.00 0.00 0.00 89 929.5
20260506235701 51 316 1.0 1.0 0.00 0.00 0.00 89 929.6
20260506235601 51 320 1.0 1.0 0.00 0.00 0.00 89 929.5
20260506235501 51 312 0.0 1.0 0.00 0.00 0.00 89 929.5
20260506235401 51 304 0.0 1.0 0.00 0.00 0.00 89 929.4
20260506235301 51 303 0.0 1.0 0.00 0.00 0.00 89 929.5
20260506235201 51 296 0.0 1.0 0.00 0.00 0.00 89 929.5
20260506235101 51 296 0.0 1.0 0.00 0.00 0.00 88 929.4
20260506235001 51 293 1.0 1.0 0.00 0.00 0.00 88 929.6
20260506234901 51 273 1.0 1.0 0.00 0.00 0.00 89 929.7
20260506234801 51 300 1.0 2.0 0.00 0.00 0.00 89 929.7
20260506234701 51 300 1.0 1.0 0.00 0.00 0.00 89 929.4
20260506234600 51 302 1.0 2.0 0.00 0.00 0.00 89 929.4
20260506234501 51 326 2.0 2.0 0.00 0.00 0.00 89 929.4
20260506234400 51 309 1.0 1.0 0.00 0.00 0.00 89 929.4
20260506234301 51 298 1.0 1.0 0.00 0.00 0.00 89 929.3
20260506234201 51 280 1.0 1.0 0.00 0.00 0.00 89 929.5
20260506234101 51 289 1.0 1.0 0.00 0.00 0.00 89 929.4
20260506234001 51 302 1.0 1.0 0.00 0.00 0.00 88 929.2
20260506233901 51 330 1.0 2.0 0.00 0.00 0.00 88 929.3
20260506233801 51 321 1.0 2.0 0.00 0.00 0.00 88 929.1
20260506233701 51 330 1.0 2.0 0.00 0.00 0.00 88 929.3
20260506233602 51 326 1.0 2.0 0.00 0.00 0.00 88 929.2
20260506233501 52 329 1.0 3.0 0.00 0.00 0.00 88 929.2
20260506233401 52 328 2.0 2.0 0.00 0.00 0.00 88 929.1
20260506233301 52 322 2.0 2.0 0.00 0.00 0.00 88 929.3
20260506233201 52 316 2.0 2.0 0.00 0.00 0.00 88 929.2
20260506233102 52 322 2.0 3.0 0.00 0.00 0.00 88 929.2
20260506233001 52 333 2.0 3.0 0.00 0.00 0.00 88 928.9
20260506232900 52 328 2.0 3.0 0.00 0.00 0.00 87 928.9
20260506232801 52 327 2.0 3.0 0.00 0.00 0.00 87 929.1
20260506232701 52 331 3.0 3.0 0.00 0.00 0.00 88 928.9
20260506232600 52 347 3.0 3.0 0.00 0.00 0.00 88 928.9
20260506232500 52 334 2.0 3.0 0.00 0.00 0.00 88 928.9
20260506232401 52 343 3.0 3.0 0.00 0.00 0.00 88 929.0
20260506232301 52 348 2.0 2.0 0.00 0.00 0.00 87 928.9
20260506232201 52 352 2.0 3.0 0.00 0.00 0.00 87 929.0
20260506232100 52 344 2.0 3.0 0.00 0.00 0.00 87 928.8
20260506232001 52 342 3.0 3.0 0.00 0.00 0.00 87 928.7
20260506231901 52 349 3.0 4.0 0.00 0.00 0.00 87 928.7
20260506231801 52 351 3.0 4.0 0.00 0.00 0.00 87 928.5
20260506231701 52 63 3.0 3.0 0.00 0.00 0.00 87 928.7
20260506231601 52 352 2.0 3.0 0.00 0.00 0.00 87 928.3
20260506231501 52 20 2.0 3.0 0.00 0.00 0.00 87 928.2
20260506231401 52 337 2.0 3.0 0.00 0.00 0.00 87 928.3
20260506231301 52 0 2.0 3.0 0.00 0.00 0.00 87 928.2
20260506231201 52 45 3.0 3.0 0.00 0.00 0.00 87 928.1
20260506231100 52 18 2.0 4.0 0.00 0.00 0.00 87 928.3
20260506231001 52 14 2.0 4.0 0.00 0.00 0.00 87 928.2
20260506230901 52 31 3.0 4.0 0.00 0.00 0.00 87 928.2
20260506230801 52 3 3.0 4.0 0.00 0.00 0.00 87 928.4
20260506230701 52 17 3.0 4.0 0.00 0.00 0.00 87 928.2
20260506230601 52 43 3.0 4.0 0.00 0.00 0.00 87 928.4
20260506230501 52 355 3.0 3.0 0.00 0.00 0.00 87 928.2
20260506230400 52 28 3.0 4.0 0.00 0.00 0.00 88 928.3
20260506230302 52 28 3.0 4.0 0.00 0.00 0.00 88 928.3
20260506230201 52 353 3.0 4.0 0.00 0.00 0.00 88 928.2
20260506230101 52 9 3.0 3.0 0.00 0.00 0.00 88 928.1
20260506230001 52 22 2.0 4.0 0.00 0.00 0.00 88 928.4
20260506225901 52 14 2.0 4.0 0.00 0.00 0.00 88 928.3
20260506225800 52 10 2.0 4.0 0.00 0.00 0.00 88 928.3
20260506225701 52 351 3.0 4.0 0.00 0.00 0.00 88 928.4
20260506225601 52 353 3.0 4.0 0.00 0.00 0.00 89 928.6
20260506225501 52 350 4.0 4.0 0.00 0.00 0.00 89 928.3
20260506225401 52 0 2.0 3.0 0.00 0.00 0.00 90 928.4
20260506225301 52 347 2.0 3.0 0.00 0.00 0.00 90 928.5
20260506225202 52 347 2.0 3.0 0.00 0.00 0.00 90 928.6
20260506225100 52 344 2.0 3.0 0.00 0.00 0.00 90 928.3
20260506225001 52 339 2.0 4.0 0.00 0.00 0.00 90 928.5
20260506224901 52 328 3.0 4.0 0.00 0.00 0.00 90 928.3
20260506224801 52 334 3.0 4.0 0.00 0.00 0.00 91 928.3
20260506224701 52 335 4.0 4.0 0.00 0.00 0.00 91 928.5
20260506224601 52 337 3.0 4.0 0.00 0.00 0.00 91 928.3
20260506224501 52 328 3.0 4.0 0.00 0.00 0.00 91 928.7
20260506224401 52 334 4.0 4.0 0.00 0.00 0.00 91 928.4
20260506224301 52 338 3.0 4.0 0.00 0.00 0.00 91 928.4
20260506224201 52 330 4.0 5.0 0.00 0.00 0.00 91 928.4
20260506224101 52 324 4.0 5.0 0.00 0.00 0.00 92 928.5
20260506224001 52 338 3.0 4.0 0.00 0.00 0.00 92 928.6
20260506223901 52 322 4.0 4.0 0.00 0.00 0.00 92 928.6
20260506223801 52 336 3.0 4.0 0.00 0.00 0.00 92 928.4
20260506223700 52 332 3.0 4.0 0.00 0.00 0.00 92 928.4
20260506223601 52 327 3.0 4.0 0.00 0.00 0.00 92 928.5
20260506223501 52 335 3.0 4.0 0.00 0.00 0.00 92 928.5
20260506223402 52 329 3.0 5.0 0.00 0.00 0.00 92 928.5
20260506223300 52 331 4.0 5.0 0.00 0.00 0.00 92 928.4
20260506223201 52 330 3.0 5.0 0.00 0.00 0.00 92 928.5
20260506223100 52 333 4.0 5.0 0.00 0.00 0.00 92 928.4
20260506223001 52 344 3.0 4.0 0.00 0.00 0.00 92 928.6
20260506222901 52 328 4.0 5.0 0.00 0.00 0.00 92 928.7
20260506222801 52 335 3.0 5.0 0.00 0.00 0.00 92 928.6
20260506222700 52 322 3.0 5.0 0.00 0.00 0.00 92 928.6
20260506222600 52 308 4.0 6.0 0.00 0.00 0.00 92 928.4
20260506222500 52 307 4.0 6.0 0.00 0.00 0.00 92 928.6
20260506222400 52 324 4.0 6.0 0.00 0.00 0.00 92 928.4
20260506222301 52 333 3.0 5.0 0.00 0.00 0.00 92 928.7
20260506222202 52 322 4.0 5.0 0.00 0.00 0.00 93 928.5
20260506222101 51 326 3.0 5.0 0.00 0.00 0.00 93 928.5
20260506222001 51 323 5.0 5.0 0.00 0.00 0.00 93 928.7
20260506221902 51 327 4.0 6.0 0.00 0.00 0.00 93 928.7
20260506221801 51 322 4.0 6.0 0.00 0.00 0.00 94 928.7
20260506221701 51 321 4.0 6.0 0.00 0.00 0.00 94 928.8
20260506221601 51 328 4.0 5.0 0.00 0.00 0.00 94 928.6
20260506221501 51 326 4.0 4.0 0.00 0.00 0.00 94 928.7
20260506221401 51 319 4.0 6.0 0.00 0.00 0.00 94 928.9
20260506221301 51 320 4.0 4.0 0.00 0.00 0.00 94 928.5
20260506221202 51 319 2.0 4.0 0.00 0.00 0.00 94 928.7
20260506221101 51 325 2.0 3.0 0.00 0.00 0.00 94 928.9
20260506221001 51 325 3.0 4.0 0.00 0.00 0.00 94 928.7
20260506220901 51 315 3.0 4.0 0.00 0.00 0.00 94 928.7
20260506220802 51 338 2.0 4.0 0.00 0.00 0.00 94 928.8
20260506220701 51 301 2.0 4.0 0.00 0.00 0.00 94 928.6
20260506220601 51 310 2.0 4.0 0.00 0.00 0.00 94 928.8
20260506220501 51 302 2.0 5.0 0.00 0.00 0.00 94 928.7
20260506220401 51 306 2.0 5.0 0.00 0.00 0.00 94 928.9
20260506220301 51 316 3.0 6.0 0.00 0.00 0.00 94 928.8
20260506220201 51 319 2.0 6.0 0.00 0.00 0.00 94 928.8
20260506220100 51 311 2.0 3.0 0.00 0.00 0.02 94 928.8
20260506220001 51 311 2.0 3.0 0.00 0.00 0.02 94 928.8
20260506215901 51 300 2.0 3.0 0.00 0.00 0.02 94 928.8
20260506215801 51 305 2.0 3.0 0.00 0.00 0.02 94 928.8
20260506215702 51 306 1.0 3.0 0.00 0.00 0.02 94 928.7
20260506215600 51 301 2.0 3.0 0.00 0.00 0.02 94 928.8
20260506215501 51 308 2.0 4.0 0.00 0.00 0.02 94 928.8
20260506215401 51 314 3.0 4.0 0.00 0.00 0.02 94 928.9
20260506215301 51 311 2.0 2.0 0.00 0.00 0.02 94 928.9
20260506215201 51 310 1.0 2.0 0.00 0.00 0.02 94 928.8
20260506215101 51 306 2.0 3.0 0.00 0.00 0.02 94 928.8
20260506215000 51 278 2.0 6.0 0.00 0.00 0.02 94 928.9
20260506214901 51 304 4.0 6.0 0.00 0.00 0.02 93 928.9
20260506214801 51 305 2.0 4.0 0.00 0.00 0.02 93 928.9
20260506214702 51 310 2.0 4.0 0.00 0.00 0.02 93 928.5
20260506214601 51 298 2.0 3.0 0.00 0.00 0.02 93 928.7
20260506214501 51 297 2.0 3.0 0.00 0.00 0.02 92 928.7
20260506214401 51 306 2.0 3.0 0.00 0.00 0.02 92 928.9
20260506214301 51 295 2.0 3.0 0.00 0.00 0.02 92 928.8
20260506214201 51 280 2.0 3.0 0.00 0.00 0.02 92 928.8
20260506214101 51 308 2.0 3.0 0.00 0.00 0.02 92 928.9
20260506214001 51 283 1.0 2.0 0.00 0.00 0.02 92 928.8
20260506213901 51 300 2.0 2.0 0.00 0.00 0.02 91 928.8
20260506213801 51 296 2.0 3.0 0.00 0.00 0.02 91 928.7
20260506213701 51 291 2.0 3.0 0.00 0.00 0.02 91 928.6
20260506213601 51 285 2.0 3.0 0.00 0.00 0.02 91 928.6
20260506213502 51 288 2.0 3.0 0.00 0.00 0.02 92 928.7
20260506213401 51 276 2.0 3.0 0.00 0.00 0.02 91 928.7
20260506213301 51 300 2.0 3.0 0.00 0.00 0.02 91 928.6
20260506213201 51 292 1.0 2.0 0.00 0.00 0.02 91 928.6
20260506213101 51 278 1.0 2.0 0.00 0.00 0.02 91 928.5
20260506213001 51 276 1.0 1.0 0.00 0.00 0.02 91 928.5
20260506212901 51 271 1.0 1.0 0.00 0.00 0.02 90 928.4
20260506212801 51 293 1.0 1.0 0.00 0.00 0.02 90 928.4
20260506212701 51 309 1.0 1.0 0.00 0.00 0.02 90 928.0
20260506212602 51 317 1.0 2.0 0.00 0.00 0.02 90 928.0
20260506212501 51 320 1.0 2.0 0.00 0.00 0.02 90 928.1
20260506212401 51 325 1.0 2.0 0.00 0.00 0.02 90 927.9
20260506212301 51 325 2.0 2.0 0.00 0.00 0.02 91 927.7
20260506212201 51 328 2.0 2.0 0.00 0.00 0.02 90 928.0
20260506212101 51 328 2.0 2.0 0.00 0.00 0.02 90 927.8
20260506212001 51 326 2.0 2.0 0.00 0.00 0.02 90 927.8
20260506211901 51 323 2.0 2.0 0.00 0.00 0.02 90 927.6
20260506211801 52 340 2.0 2.0 0.00 0.00 0.02 89 927.5
20260506211701 52 333 2.0 2.0 0.00 0.00 0.02 89 927.5
20260506211601 52 346 2.0 2.0 0.00 0.00 0.02 89 927.6
20260506211201 52 18 2.0 2.0 0.00 0.00 0.02 89 927.4
20260506211101 52 40 1.0 2.0 0.00 0.00 0.02 89 927.2
20260506211001 52 37 1.0 2.0 0.00 0.00 0.02 89 927.1
20260506210901 52 45 2.0 2.0 0.00 0.00 0.02 89 927.3
20260506210801 52 49 2.0 3.0 0.00 0.00 0.02 89 927.1
20260506210700 52 48 2.0 3.0 0.00 0.00 0.02 89 927.3
20260506210601 52 68 1.0 2.0 0.00 0.00 0.02 89 927.4
20260506210501 52 57 2.0 2.0 0.00 0.00 0.02 88 927.1
20260506210402 52 50 2.0 2.0 0.00 0.00 0.02 88 927.3
20260506210301 52 65 1.0 2.0 0.00 0.00 0.02 88 927.2
20260506210201 52 58 1.0 2.0 0.00 0.00 0.02 88 927.1
20260506210001 52 82 1.0 2.0 0.00 0.00 0.02 88 927.2
20260506205901 52 54 1.0 2.0 0.00 0.00 0.02 88 927.2
20260506205801 52 72 1.0 2.0 0.00 0.00 0.02 88 927.2
20260506205700 52 66 1.0 2.0 0.00 0.00 0.02 88 927.1
20260506205601 53 56 1.0 2.0 0.00 0.00 0.02 88 927.3
20260506205501 53 71 1.0 2.0 0.00 0.00 0.02 88 927.1
20260506205400 53 49 1.0 2.0 0.00 0.00 0.02 88 927.2
20260506205305 53 82 1.0 2.0 0.00 0.00 0.02 88 927.2
20260506205201 53 69 1.0 2.0 0.00 0.00 0.02 88 927.2
20260506205100 53 91 1.0 2.0 0.00 0.00 0.02 88 927.0
20260506205001 52 65 2.0 3.0 0.00 0.00 0.02 88 927.2
20260506204901 52 75 2.0 3.0 0.00 0.00 0.02 88 927.2
20260506204801 52 60 2.0 3.0 0.00 0.00 0.02 88 927.1
20260506204701 52 56 2.0 3.0 0.00 0.00 0.02 88 927.3
20260506204602 52 60 1.0 2.0 0.00 0.00 0.02 89 927.3
20260506204501 52 58 2.0 2.0 0.00 0.00 0.02 88 927.1
20260506204401 52 43 2.0 2.0 0.00 0.00 0.02 88 927.0
20260506204301 52 75 1.0 3.0 0.00 0.00 0.02 88 927.4
20260506204200 53 37 2.0 2.0 0.00 0.00 0.02 88 927.3
20260506204101 53 56 2.0 3.0 0.00 0.00 0.02 88 927.4
20260506204001 53 59 2.0 3.0 0.00 0.00 0.02 88 927.4
20260506203901 53 53 2.0 3.0 0.00 0.00 0.02 88 927.2
20260506203801 53 55 2.0 3.0 0.00 0.00 0.02 87 927.0
20260506203701 53 48 2.0 3.0 0.00 0.00 0.02 87 927.1
20260506203600 53 42 2.0 3.0 0.00 0.00 0.02 87 927.3
20260506203501 53 42 2.0 4.0 0.00 0.00 0.02 87 927.2
20260506203401 52 41 3.0 4.0 0.00 0.00 0.02 88 927.0
20260506203301 52 55 3.0 3.0 0.00 0.00 0.02 88 927.1
20260506203201 52 46 3.0 3.0 0.00 0.00 0.02 88 927.1
20260506203101 52 44 2.0 4.0 0.00 0.00 0.02 88 927.1
20260506203001 52 56 2.0 3.0 0.00 0.00 0.02 88 927.2
20260506202901 52 16 2.0 3.0 0.00 0.00 0.02 88 927.0
20260506202801 52 69 2.0 3.0 0.00 0.00 0.02 88 927.2
20260506202700 53 59 2.0 3.0 0.00 0.00 0.02 88 927.5
20260506202601 53 66 2.0 3.0 0.00 0.00 0.02 88 927.3
20260506202502 53 66 2.0 3.0 0.00 0.00 0.02 88 927.4
20260506202401 53 102 2.0 3.0 0.00 0.00 0.02 88 927.2
20260506202301 53 44 3.0 3.0 0.00 0.00 0.02 87 927.1
20260506202201 53 60 2.0 3.0 0.00 0.00 0.02 87 927.4
20260506202101 53 62 2.0 3.0 0.00 0.00 0.02 87 927.1
20260506202000 53 56 1.0 3.0 0.00 0.00 0.02 87 927.4
20260506201901 53 81 1.0 2.0 0.00 0.00 0.02 87 927.4
20260506201801 53 70 1.0 3.0 0.00 0.00 0.02 86 927.3
20260506201701 53 47 2.0 3.0 0.00 0.00 0.02 86 927.3
20260506201601 53 55 2.0 2.0 0.00 0.00 0.02 86 927.3
20260506201501 53 35 2.0 3.0 0.00 0.00 0.02 86 927.5
20260506201401 53 58 2.0 3.0 0.00 0.00 0.02 86 927.5
20260506201301 53 58 1.0 3.0 0.00 0.00 0.02 86 927.3
20260506201201 53 57 2.0 3.0 0.00 0.00 0.02 86 927.3
20260506201102 53 51 2.0 3.0 0.00 0.00 0.02 86 927.3
20260506201001 53 46 3.0 3.0 0.00 0.00 0.02 86 927.3
20260506200901 53 5 2.0 3.0 0.00 0.00 0.02 86 927.2
20260506200801 53 37 3.0 3.0 0.00 0.00 0.02 86 927.4
20260506200701 53 39 2.0 4.0 0.00 0.00 0.02 86 927.1
20260506200601 53 65 3.0 4.0 0.00 0.00 0.02 86 927.5
20260506200501 53 44 3.0 4.0 0.00 0.00 0.02 87 927.4
20260506200401 53 21 2.0 4.0 0.00 0.00 0.02 87 927.2
20260506200301 53 35 2.0 4.0 0.00 0.00 0.02 87 927.3
20260506200201 53 352 3.0 4.0 0.00 0.00 0.02 87 927.4
20260506200101 53 37 3.0 4.0 0.00 0.00 0.02 87 927.3
20260506200001 53 44 3.0 4.0 0.00 0.00 0.02 87 927.3
20260506195901 53 44 3.0 4.0 0.00 0.00 0.02 87 927.3
20260506195801 53 11 3.0 3.0 0.00 0.00 0.02 87 927.3
20260506195701 53 44 3.0 3.0 0.00 0.00 0.02 86 927.5
20260506195601 53 59 3.0 4.0 0.00 0.00 0.02 86 927.4
20260506195501 53 38 3.0 4.0 0.00 0.00 0.02 86 927.3
20260506195401 53 44 2.0 4.0 0.00 0.00 0.02 86 927.4
20260506195300 53 43 2.0 4.0 0.00 0.00 0.02 86 927.6
20260506195200 53 50 3.0 4.0 0.00 0.00 0.02 86 927.4
20260506195101 53 35 3.0 5.0 0.00 0.00 0.02 86 927.5
20260506195001 53 50 4.0 5.0 0.00 0.00 0.02 86 927.3
20260506194901 53 14 3.0 4.0 0.00 0.00 0.02 85 927.5
20260506194800 53 56 4.0 4.0 0.00 0.00 0.02 85 927.5
20260506194701 53 42 2.0 4.0 0.00 0.00 0.02 85 927.7
20260506194600 53 46 3.0 4.0 0.00 0.00 0.02 85 927.5
20260506194501 53 18 3.0 4.0 0.00 0.00 0.02 85 927.4
20260506194401 53 35 3.0 5.0 0.00 0.00 0.02 85 927.6
20260506194300 53 30 4.0 5.0 0.00 0.00 0.02 85 927.5
20260506194201 53 48 3.0 4.0 0.00 0.00 0.02 85 927.6
20260506194101 53 2 3.0 4.0 0.00 0.00 0.02 85 927.5
20260506194001 53 55 2.0 4.0 0.00 0.00 0.02 85 927.3
20260506193901 53 36 3.0 4.0 0.00 0.00 0.02 85 927.2
20260506193801 53 41 3.0 5.0 0.00 0.00 0.02 85 927.5
20260506193701 53 11 4.0 5.0 0.00 0.00 0.02 84 927.4
20260506193601 53 47 4.0 6.0 0.00 0.00 0.02 84 927.5
20260506193501 53 41 3.0 6.0 0.00 0.00 0.02 84 927.6
20260506193400 53 25 4.0 5.0 0.00 0.00 0.02 85 927.4
20260506193300 53 69 2.0 4.0 0.00 0.00 0.02 86 927.4
20260506193201 53 30 3.0 5.0 0.00 0.00 0.02 86 927.5
20260506193101 53 50 3.0 5.0 0.00 0.00 0.02 86 927.1
20260506193001 53 34 3.0 4.0 0.00 0.00 0.02 86 927.4
20260506192901 53 35 3.0 4.0 0.00 0.00 0.02 87 927.6
20260506192801 53 16 4.0 4.0 0.00 0.00 0.02 87 927.4
20260506192701 53 46 3.0 4.0 0.00 0.00 0.02 88 927.5
20260506192601 53 34 3.0 3.0 0.00 0.00 0.02 88 927.6
20260506192501 53 35 3.0 5.0 0.00 0.00 0.02 88 927.6
20260506192401 53 34 4.0 5.0 0.00 0.00 0.02 88 927.3
20260506192300 53 27 4.0 4.0 0.00 0.00 0.02 88 927.6
20260506192201 53 68 3.0 4.0 0.00 0.00 0.02 88 927.5
20260506192101 53 26 4.0 4.0 0.00 0.00 0.02 88 927.5
20260506192001 54 23 4.0 4.0 0.00 0.00 0.02 88 927.3
20260506191901 54 30 4.0 6.0 0.00 0.00 0.02 88 927.4
20260506191801 54 32 5.0 6.0 0.00 0.00 0.02 89 927.4
20260506191701 54 37 4.0 5.0 0.00 0.00 0.02 89 927.4
20260506191601 54 54 3.0 5.0 0.00 0.00 0.02 89 927.3
20260506191501 54 33 4.0 5.0 0.00 0.00 0.02 89 927.2
20260506191401 54 24 3.0 5.0 0.00 0.00 0.02 89 927.2
20260506191301 54 2 2.0 4.0 0.00 0.00 0.02 89 927.3
20260506191102 53 33 3.0 5.0 0.00 0.00 0.02 90 927.3
20260506190902 53 24 2.0 4.0 0.00 0.00 0.02 91 927.4
20260506190701 53 31 3.0 4.0 0.00 0.00 0.02 92 927.4
20260506190601 53 48 3.0 4.0 0.00 0.00 0.02 92 927.5
20260506190501 53 41 3.0 5.0 0.00 0.00 0.02 92 927.4
20260506190401 53 21 3.0 5.0 0.00 0.00 0.02 93 927.4
20260506190301 53 47 3.0 4.0 0.00 0.00 0.02 92 927.5
20260506190201 53 27 3.0 4.0 0.00 0.00 0.02 92 927.5
20260506190101 53 27 3.0 4.0 0.00 0.00 0.02 92 927.2
20260506190001 53 39 4.0 5.0 0.00 0.00 0.02 93 927.6
20260506185901 53 49 3.0 5.0 0.00 0.00 0.02 93 927.5
20260506185801 53 49 3.0 5.0 0.00 0.00 0.02 93 927.5
20260506185701 53 34 4.0 5.0 0.00 0.00 0.02 93 927.4
20260506185601 53 17 2.0 4.0 0.00 0.00 0.02 93 927.6
20260506185501 53 37 3.0 4.0 0.00 0.00 0.02 93 927.6
20260506185401 53 29 3.0 4.0 0.00 0.00 0.02 93 927.5
20260506185301 54 27 3.0 5.0 0.00 0.00 0.02 93 927.4
20260506185201 54 16 3.0 3.0 0.00 0.00 0.02 94 927.2
20260506185101 54 9 3.0 4.0 0.00 0.00 0.02 94 927.5
20260506185002 54 340 4.0 5.0 0.00 0.00 0.02 94 927.7
20260506184901 54 346 3.0 4.0 0.00 0.00 0.02 94 927.4
20260506184801 54 20 2.0 4.0 0.00 0.00 0.02 94 927.4
20260506184702 54 4 3.0 4.0 0.00 0.00 0.02 94 927.5
20260506184600 54 26 3.0 4.0 0.00 0.00 0.02 94 927.5
20260506184501 54 14 4.0 4.0 0.00 0.00 0.02 94 927.5
20260506184401 54 352 3.0 4.0 0.00 0.00 0.02 94 927.5
20260506184301 54 29 3.0 3.0 0.00 0.00 0.02 94 927.2
20260506184201 54 354 3.0 3.0 0.00 0.00 0.02 94 927.3
20260506184101 54 339 3.0 3.0 0.00 0.00 0.02 94 927.3
20260506184001 54 8 3.0 4.0 0.00 0.00 0.02 93 927.2
20260506183901 54 353 3.0 4.0 0.00 0.00 0.02 93 927.4
20260506183801 54 355 3.0 4.0 0.00 0.00 0.02 93 927.4
20260506183701 54 31 3.0 4.0 0.00 0.00 0.02 93 927.4
20260506183600 54 344 3.0 4.0 0.00 0.00 0.02 93 927.4
20260506183500 54 359 3.0 5.0 0.00 0.00 0.02 93 927.4
20260506183400 54 12 4.0 5.0 0.00 0.00 0.02 93 927.4
20260506183301 54 8 3.0 4.0 0.00 0.00 0.02 94 927.3
20260506183201 54 353 3.0 4.0 0.00 0.00 0.02 94 927.4
20260506183101 54 6 3.0 4.0 0.00 0.00 0.02 94 927.3
20260506183002 55 34 3.0 4.0 0.00 0.00 0.02 94 927.2
20260506182901 55 359 3.0 3.0 0.00 0.00 0.02 94 927.3
20260506182801 55 30 3.0 4.0 0.00 0.00 0.02 94 927.5
20260506182701 55 21 3.0 4.0 0.00 0.00 0.02 94 927.4
20260506182601 55 15 3.0 4.0 0.00 0.00 0.02 94 927.4
20260506182501 55 64 3.0 3.0 0.00 0.00 0.02 94 927.3
20260506182401 55 12 3.0 4.0 0.00 0.00 0.02 94 927.4
20260506182301 55 33 3.0 3.0 0.00 0.00 0.02 94 927.5
20260506182201 55 350 3.0 4.0 0.00 0.00 0.02 93 927.4
20260506182101 55 29 3.0 4.0 0.00 0.00 0.02 93 927.3
20260506182001 55 8 3.0 3.0 0.00 0.00 0.02 93 927.3
20260506181901 55 6 2.0 3.0 0.00 0.00 0.02 93 927.6
20260506181801 55 351 3.0 3.0 0.00 0.00 0.02 93 927.4
20260506181701 55 9 3.0 3.0 0.00 0.00 0.02 93 927.4
20260506181601 55 20 3.0 4.0 0.00 0.00 0.02 93 927.3
20260506181500 55 22 3.0 4.0 0.00 0.00 0.02 93 927.4
20260506181401 55 13 3.0 4.0 0.00 0.00 0.02 93 927.3
20260506181301 55 349 3.0 4.0 0.00 0.00 0.02 93 927.4
20260506181201 55 17 2.0 4.0 0.00 0.00 0.02 93 927.4
20260506181101 55 36 3.0 3.0 0.00 0.00 0.02 93 927.2
20260506181001 55 33 3.0 3.0 0.00 0.00 0.02 93 927.3
20260506180901 55 45 2.0 3.0 0.00 0.00 0.02 93 927.3
20260506180802 55 26 3.0 4.0 0.00 0.00 0.02 93 927.2
20260506180701 55 16 3.0 4.0 0.00 0.00 0.02 93 927.0
20260506180601 55 295 3.0 3.0 0.00 0.00 0.02 93 927.2
20260506180501 55 29 3.0 4.0 0.00 0.00 0.02 93 927.2
20260506180401 55 28 3.0 4.0 0.00 0.00 0.02 93 927.3
20260506180301 55 0 2.0 3.0 0.00 0.00 0.02 93 927.2
20260506180201 55 15 2.0 3.0 0.00 0.00 0.02 93 927.3
20260506180100 55 12 3.0 4.0 0.00 0.00 0.02 93 927.2
20260506180001 55 6 3.0 3.0 0.00 0.00 0.02 93 927.5
20260506175901 55 13 2.0 3.0 0.00 0.00 0.02 93 927.2
20260506175801 55 28 3.0 3.0 0.00 0.00 0.02 93 927.3
20260506175701 55 28 3.0 3.0 0.00 0.00 0.02 93 927.3
20260506175605 55 1 2.0 4.0 0.00 0.00 0.02 93 927.4
20260506175501 55 24 2.0 4.0 0.00 0.00 0.02 93 927.4
20260506175401 55 22 3.0 4.0 0.00 0.00 0.02 93 927.4
20260506175307 55 2 2.0 4.0 0.00 0.00 0.02 93 927.2
20260506175201 55 16 3.0 3.0 0.00 0.00 0.02 93 927.3
20260506175100 55 2 2.0 4.0 0.00 0.00 0.02 93 927.2
20260506175001 55 5 3.0 4.0 0.00 0.00 0.02 93 927.2
20260506174901 55 350 3.0 4.0 0.00 0.00 0.02 93 927.1
20260506174801 55 33 2.0 4.0 0.00 0.00 0.02 92 927.3
20260506174701 55 9 3.0 3.0 0.00 0.00 0.02 92 926.9